Wetterdaten: Samstag, 04.12.2021
Datum Zeit Temp. Aussen Temp. o. S. Temp +5cm Feuchte Auss Luftdruck Regen Sonnenschein Regendauer Solar Windben Empfang
04.12.2021 00:00 3,9 C 2,8 C 1,1 C 93 % 1002,5 hPa 0,0 l/m 0 min 0 min 0 W/m 6,4 km/h (2 Bft) 93,62 %
04.12.2021 00:02 3,9 C 2,8 C 1,1 C 93 % 1002,5 hPa 0,0 l/m 0 min 2 min 0 W/m 12,9 km/h (3 Bft) 94,44 %
04.12.2021 00:04 3,8 C 2,8 C 1,1 C 93 % 1002,4 hPa 0,0 l/m 0 min 2 min 0 W/m 6,4 km/h (2 Bft) 95,74 %
04.12.2021 00:08 3,8 C 2,8 C 1,1 C 93 % 1002,3 hPa 0,2 l/m 0 min 0 min 0 W/m 6,4 km/h (2 Bft) 94,44 %
04.12.2021 00:13 3,8 C 2,8 C 0,6 C 93 % 1002,2 hPa 0,0 l/m 0 min 0 min 0 W/m 16,1 km/h (3 Bft) 89,80 %
04.12.2021 00:14 3,8 C 2,8 C 0,6 C 93 % 1002,2 hPa 0,0 l/m 0 min 0 min 0 W/m 6,4 km/h (2 Bft) 91,67 %
04.12.2021 00:16 3,8 C 2,8 C 0,6 C 94 % 1002,1 hPa 0,0 l/m 0 min 2 min 0 W/m 12,9 km/h (3 Bft) 95,74 %
04.12.2021 00:18 3,8 C 2,8 C 0,6 C 94 % 1002,1 hPa 0,0 l/m 0 min 0 min 0 W/m 3,2 km/h (1 Bft) 97,83 %
04.12.2021 00:20 3,8 C 2,8 C 0,6 C 94 % 1002,1 hPa 0,0 l/m 0 min 0 min 0 W/m 6,4 km/h (2 Bft) 97,87 %
04.12.2021 00:22 3,8 C 2,8 C 0,6 C 94 % 1002,0 hPa 0,0 l/m 0 min 2 min 0 W/m 6,4 km/h (2 Bft) 93,62 %
04.12.2021 00:24 3,8 C 2,8 C 0,6 C 94 % 1002,0 hPa 0,2 l/m 0 min 0 min 0 W/m 16,1 km/h (3 Bft) 100,00 %
04.12.2021 00:26 3,8 C 2,8 C 0,6 C 94 % 1001,9 hPa 0,0 l/m 0 min 0 min 0 W/m 12,9 km/h (3 Bft) 100,00 %
04.12.2021 00:28 3,7 C 2,8 C 0,6 C 94 % 1001,8 hPa 0,0 l/m 0 min 0 min 0 W/m 6,4 km/h (2 Bft) 100,00 %
04.12.2021 00:30 3,7 C 2,8 C 0,6 C 94 % 1001,8 hPa 0,0 l/m 0 min 0 min 0 W/m 6,4 km/h (2 Bft) 95,65 %
04.12.2021 00:32 3,7 C 2,8 C 0,6 C 94 % 1001,8 hPa 0,0 l/m 0 min 0 min 0 W/m 16,1 km/h (3 Bft) 100,00 %
04.12.2021 00:34 3,7 C 2,8 C 0,6 C 94 % 1001,8 hPa 0,0 l/m 0 min 0 min 0 W/m 12,9 km/h (3 Bft) 100,00 %
04.12.2021 00:36 3,7 C 2,8 C 0,6 C 94 % 1001,8 hPa 0,0 l/m 0 min 0 min 0 W/m 12,9 km/h (3 Bft) 100,00 %
04.12.2021 00:38 3,6 C 2,8 C 0,6 C 94 % 1001,8 hPa 0,0 l/m 0 min 0 min 0 W/m 12,9 km/h (3 Bft) 97,87 %
04.12.2021 00:40 3,6 C 2,8 C 0,6 C 94 % 1001,8 hPa 0,0 l/m 0 min 0 min 0 W/m 6,4 km/h (2 Bft) 97,87 %
04.12.2021 00:42 3,6 C 2,8 C 0,6 C 94 % 1001,7 hPa 0,0 l/m 0 min 0 min 0 W/m 6,4 km/h (2 Bft) 100,00 %
04.12.2021 00:44 3,6 C 2,8 C 0,6 C 94 % 1001,8 hPa 0,0 l/m 0 min 0 min 0 W/m 6,4 km/h (2 Bft) 100,00 %
04.12.2021 00:46 3,6 C 2,8 C 0,6 C 94 % 1001,7 hPa 0,0 l/m 0 min 0 min 0 W/m 6,4 km/h (2 Bft) 100,00 %
04.12.2021 00:48 3,6 C 2,8 C 0,6 C 94 % 1001,7 hPa 0,0 l/m 0 min 0 min 0 W/m 12,9 km/h (3 Bft) 100,00 %
04.12.2021 00:50 3,6 C 2,8 C 0,6 C 94 % 1001,6 hPa 0,0 l/m 0 min 0 min 0 W/m 3,2 km/h (1 Bft) 41,18 %
04.12.2021 00:52 3,6 C 2,8 C 0,6 C 94 % 1001,6 hPa 0,0 l/m 0 min 0 min 0 W/m 6,4 km/h (2 Bft) 100,00 %
04.12.2021 00:54 3,6 C 2,8 C 0,6 C 95 % 1001,6 hPa 0,0 l/m 0 min 0 min 0 W/m 9,7 km/h (2 Bft) 97,83 %
04.12.2021 00:56 3,6 C 2,8 C 0,6 C 95 % 1001,5 hPa 0,0 l/m 0 min 0 min 0 W/m 12,9 km/h (3 Bft) 97,87 %
04.12.2021 00:58 3,6 C 2,8 C 0,6 C 95 % 1001,5 hPa 0,0 l/m 0 min 0 min 0 W/m 12,9 km/h (3 Bft) 97,87 %
04.12.2021 01:00 3,5 C 2,8 C 0,6 C 95 % 1001,5 hPa 0,0 l/m 0 min 0 min 0 W/m 6,4 km/h (2 Bft) 100,00 %
04.12.2021 01:02 3,5 C 2,8 C 0,6 C 95 % 1001,4 hPa 0,0 l/m 0 min 0 min 0 W/m 12,9 km/h (3 Bft) 97,87 %
04.12.2021 01:04 3,5 C 2,8 C 0,6 C 95 % 1001,5 hPa 0,0 l/m 0 min 0 min 0 W/m 12,9 km/h (3 Bft) 97,87 %
04.12.2021 01:06 3,5 C 2,8 C 0,6 C 95 % 1001,5 hPa 0,0 l/m 0 min 0 min 0 W/m 6,4 km/h (2 Bft) 97,83 %
04.12.2021 01:08 3,5 C 2,8 C 1,1 C 95 % 1001,4 hPa 0,0 l/m 0 min 0 min 0 W/m 6,4 km/h (2 Bft) 97,87 %
04.12.2021 01:10 3,5 C 2,8 C 1,1 C 95 % 1001,4 hPa 0,0 l/m 0 min 0 min 0 W/m 12,9 km/h (3 Bft) 97,87 %
04.12.2021 01:12 3,5 C 2,8 C 1,1 C 95 % 1001,4 hPa 0,0 l/m 0 min 0 min 0 W/m 12,9 km/h (3 Bft) 97,87 %
04.12.2021 01:14 3,5 C 2,8 C 1,1 C 95 % 1001,4 hPa 0,0 l/m 0 min 0 min 0 W/m 6,4 km/h (2 Bft) 97,87 %
04.12.2021 01:16 3,5 C 2,8 C 1,1 C 95 % 1001,3 hPa 0,0 l/m 0 min 0 min 0 W/m 6,4 km/h (2 Bft) 97,87 %
04.12.2021 01:18 3,5 C 2,8 C 1,1 C 95 % 1001,3 hPa 0,0 l/m 0 min 0 min 0 W/m 12,9 km/h (3 Bft) 97,83 %
04.12.2021 01:20 3,5 C 2,8 C 1,1 C 95 % 1001,2 hPa 0,0 l/m 0 min 0 min 0 W/m 6,4 km/h (2 Bft) 95,74 %
04.12.2021 01:22 3,5 C 2,8 C 1,1 C 95 % 1001,2 hPa 0,0 l/m 0 min 0 min 0 W/m 9,7 km/h (2 Bft) 97,87 %
04.12.2021 01:24 3,5 C 2,8 C 1,1 C 95 % 1001,2 hPa 0,0 l/m 0 min 0 min 0 W/m 6,4 km/h (2 Bft) 95,74 %
04.12.2021 01:26 3,5 C 2,8 C 1,1 C 95 % 1001,2 hPa 0,0 l/m 0 min 0 min 0 W/m 6,4 km/h (2 Bft) 97,87 %
04.12.2021 01:28 3,5 C 2,8 C 1,1 C 95 % 1001,1 hPa 0,0 l/m 0 min 0 min 0 W/m 6,4 km/h (2 Bft) 97,87 %
04.12.2021 01:30 3,5 C 2,8 C 1,1 C 95 % 1001,1 hPa 0,0 l/m 0 min 0 min 0 W/m 6,4 km/h (2 Bft) 97,83 %
04.12.2021 01:32 3,5 C 2,8 C 1,1 C 95 % 1001,1 hPa 0,0 l/m 0 min 0 min 0 W/m 6,4 km/h (2 Bft) 95,74 %
04.12.2021 01:34 3,5 C 2,8 C 1,1 C 95 % 1001,0 hPa 0,0 l/m 0 min 0 min 0 W/m 6,4 km/h (2 Bft) 97,87 %
04.12.2021 01:36 3,5 C 2,8 C 1,1 C 95 % 1001,0 hPa 0,0 l/m 0 min 0 min 0 W/m 12,9 km/h (3 Bft) 97,87 %
04.12.2021 01:38 3,5 C 2,8 C 1,1 C 95 % 1001,0 hPa 0,0 l/m 0 min 0 min 0 W/m 12,9 km/h (3 Bft) 93,62 %
04.12.2021 01:40 3,5 C 2,8 C 1,1 C 95 % 1001,0 hPa 0,0 l/m 0 min 0 min 0 W/m 12,9 km/h (3 Bft) 95,83 %
04.12.2021 01:42 3,5 C 2,8 C 1,1 C 95 % 1000,9 hPa 0,0 l/m 0 min 0 min 0 W/m 12,9 km/h (3 Bft) 97,87 %
04.12.2021 01:44 3,5 C 2,8 C 1,1 C 95 % 1000,9 hPa 0,0 l/m 0 min 0 min 0 W/m 6,4 km/h (2 Bft) 97,87 %
04.12.2021 01:46 3,5 C 2,8 C 1,1 C 95 % 1000,8 hPa 0,0 l/m 0 min 0 min 0 W/m 6,4 km/h (2 Bft) 97,87 %
04.12.2021 01:48 3,5 C 2,8 C 1,1 C 95 % 1000,8 hPa 0,0 l/m 0 min 0 min 0 W/m 16,1 km/h (3 Bft) 40,00 %
04.12.2021 01:50 3,5 C 2,8 C 1,1 C 95 % 1000,8 hPa 0,0 l/m 0 min 0 min 0 W/m 16,1 km/h (3 Bft) 95,74 %
04.12.2021 01:52 3,5 C 2,8 C 1,1 C 95 % 1000,8 hPa 0,0 l/m 0 min 0 min 0 W/m 12,9 km/h (3 Bft) 97,87 %
04.12.2021 01:54 3,5 C 2,8 C 1,1 C 95 % 1000,7 hPa 0,0 l/m 0 min 0 min 0 W/m 6,4 km/h (2 Bft) 93,62 %
04.12.2021 01:56 3,5 C 2,8 C 1,1 C 95 % 1000,7 hPa 0,0 l/m 0 min 0 min 0 W/m 12,9 km/h (3 Bft) 97,83 %
04.12.2021 01:58 3,5 C 2,8 C 1,1 C 96 % 1000,7 hPa 0,0 l/m 0 min 0 min 0 W/m 12,9 km/h (3 Bft) 97,87 %
04.12.2021 02:00 3,5 C 2,8 C 1,1 C 96 % 1000,7 hPa 0,0 l/m 0 min 0 min 0 W/m 16,1 km/h (3 Bft) 97,87 %
04.12.2021 02:02 3,5 C 2,8 C 1,1 C 96 % 1000,6 hPa 0,0 l/m 0 min 0 min 0 W/m 16,1 km/h (3 Bft) 95,74 %
04.12.2021 02:04 3,5 C 2,8 C 1,1 C 96 % 1000,6 hPa 0,0 l/m 0 min 0 min 0 W/m 16,1 km/h (3 Bft) 95,74 %
04.12.2021 02:06 3,5 C 2,8 C 1,1 C 96 % 1000,5 hPa 0,0 l/m 0 min 0 min 0 W/m 6,4 km/h (2 Bft) 98,28 %
04.12.2021 02:08 3,5 C 2,8 C 1,1 C 96 % 1000,6 hPa 0,0 l/m 0 min 0 min 0 W/m 6,4 km/h (2 Bft) 97,14 %
04.12.2021 02:10 3,5 C 2,8 C 1,1 C 96 % 1000,5 hPa 0,0 l/m 0 min 0 min 0 W/m 6,4 km/h (2 Bft) 93,62 %
04.12.2021 02:12 3,5 C 2,8 C 1,1 C 96 % 1000,5 hPa 0,0 l/m 0 min 0 min 0 W/m 6,4 km/h (2 Bft) 100,00 %
04.12.2021 02:14 3,5 C 2,8 C 1,1 C 96 % 1000,5 hPa 0,0 l/m 0 min 2 min 0 W/m 6,4 km/h (2 Bft) 97,87 %
04.12.2021 02:16 3,5 C 2,8 C 1,1 C 96 % 1000,5 hPa 0,0 l/m 0 min 0 min 0 W/m 12,9 km/h (3 Bft) 97,87 %
04.12.2021 02:18 3,5 C 2,8 C 1,1 C 96 % 1000,4 hPa 0,0 l/m 0 min 0 min 0 W/m 6,4 km/h (2 Bft) 100,00 %
04.12.2021 02:20 3,5 C 2,8 C 1,1 C 96 % 1000,4 hPa 0,0 l/m 0 min 0 min 0 W/m 12,9 km/h (3 Bft) 100,00 %
04.12.2021 02:22 3,5 C 2,8 C 1,1 C 96 % 1000,4 hPa 0,0 l/m 0 min 0 min 0 W/m 12,9 km/h (3 Bft) 95,74 %
04.12.2021 02:24 3,5 C 2,8 C 1,1 C 96 % 1000,5 hPa 0,0 l/m 0 min 0 min 0 W/m 16,1 km/h (3 Bft) 100,00 %
04.12.2021 02:26 3,5 C 2,8 C 1,1 C 96 % 1000,4 hPa 0,0 l/m 0 min 0 min 0 W/m 12,9 km/h (3 Bft) 100,00 %
04.12.2021 02:28 3,5 C 2,8 C 1,1 C 96 % 1000,4 hPa 0,0 l/m 0 min 0 min 0 W/m 9,7 km/h (2 Bft) 100,00 %
04.12.2021 02:30 3,5 C 2,8 C 1,1 C 96 % 1000,4 hPa 0,0 l/m 0 min 0 min 0 W/m 6,4 km/h (2 Bft) 97,83 %
04.12.2021 02:32 3,5 C 2,8 C 1,1 C 96 % 1000,4 hPa 0,0 l/m 0 min 2 min 0 W/m 6,4 km/h (2 Bft) 97,87 %
04.12.2021 02:34 3,5 C 2,8 C 1,1 C 96 % 1000,4 hPa 0,0 l/m 0 min 2 min 0 W/m 6,4 km/h (2 Bft) 100,00 %
04.12.2021 02:36 3,5 C 3,3 C 1,1 C 96 % 1000,4 hPa 0,0 l/m 0 min 2 min 0 W/m 12,9 km/h (3 Bft) 97,87 %
04.12.2021 02:38 3,5 C 3,3 C 1,1 C 96 % 1000,5 hPa 0,0 l/m 0 min 2 min 0 W/m 6,4 km/h (2 Bft) 97,87 %
04.12.2021 02:40 3,5 C 3,3 C 1,1 C 96 % 1000,5 hPa 0,0 l/m 0 min 2 min 0 W/m 12,9 km/h (3 Bft) 97,87 %
04.12.2021 02:42 3,5 C 3,3 C 1,1 C 96 % 1000,4 hPa 0,0 l/m 0 min 2 min 0 W/m 6,4 km/h (2 Bft) 97,87 %
04.12.2021 02:44 3,5 C 3,3 C 1,1 C 96 % 1000,5 hPa 0,0 l/m 0 min 2 min 0 W/m 6,4 km/h (2 Bft) 97,83 %
04.12.2021 02:46 3,5 C 3,3 C 1,1 C 96 % 1000,4 hPa 0,0 l/m 0 min 2 min 0 W/m 12,9 km/h (3 Bft) 93,62 %
04.12.2021 02:48 3,5 C 3,3 C 1,1 C 96 % 1000,4 hPa 0,0 l/m 0 min 2 min 0 W/m 6,4 km/h (2 Bft) 97,87 %
04.12.2021 02:50 3,5 C 3,3 C 1,1 C 96 % 1000,4 hPa 0,2 l/m 0 min 2 min 0 W/m 12,9 km/h (3 Bft) 97,87 %
04.12.2021 02:52 3,5 C 3,3 C 1,1 C 96 % 1000,3 hPa 0,0 l/m 0 min 2 min 0 W/m 12,9 km/h (3 Bft) 97,87 %
04.12.2021 02:54 3,5 C 3,3 C 1,1 C 96 % 1000,4 hPa 0,0 l/m 0 min 2 min 0 W/m 12,9 km/h (3 Bft) 97,87 %
04.12.2021 02:56 3,5 C 3,3 C 1,1 C 96 % 1000,3 hPa 0,0 l/m 0 min 2 min 0 W/m 12,9 km/h (3 Bft) 97,83 %
04.12.2021 02:58 3,5 C 3,3 C 1,1 C 96 % 1000,3 hPa 0,0 l/m 0 min 2 min 0 W/m 12,9 km/h (3 Bft) 97,87 %
04.12.2021 03:00 3,5 C 3,3 C 1,1 C 96 % 1000,2 hPa 0,0 l/m 0 min 2 min 0 W/m 9,7 km/h (2 Bft) 97,87 %
04.12.2021 03:02 3,5 C 3,3 C 1,1 C 96 % 1000,2 hPa 0,0 l/m 0 min 0 min 0 W/m 12,9 km/h (3 Bft) 93,62 %
04.12.2021 03:04 3,5 C 3,3 C 1,1 C 96 % 1000,2 hPa 0,0 l/m 0 min 2 min 0 W/m 12,9 km/h (3 Bft) 97,92 %
04.12.2021 03:06 3,5 C 3,3 C 1,1 C 96 % 1000,2 hPa 0,0 l/m 0 min 0 min 0 W/m 12,9 km/h (3 Bft) 97,83 %
04.12.2021 03:08 3,5 C 3,3 C 1,1 C 96 % 1000,2 hPa 0,0 l/m 0 min 0 min 0 W/m 16,1 km/h (3 Bft) 97,87 %
04.12.2021 03:10 3,5 C 3,3 C 1,1 C 96 % 1000,2 hPa 0,0 l/m 0 min 2 min 0 W/m 12,9 km/h (3 Bft) 95,74 %
04.12.2021 03:12 3,5 C 3,3 C 1,1 C 96 % 1000,2 hPa 0,0 l/m 0 min 2 min 0 W/m 12,9 km/h (3 Bft) 95,74 %
04.12.2021 03:14 3,5 C 3,3 C 1,1 C 96 % 1000,2 hPa 0,0 l/m 0 min 0 min 0 W/m 12,9 km/h (3 Bft) 97,87 %
04.12.2021 03:16 3,5 C 3,3 C 1,1 C 96 % 1000,2 hPa 0,0 l/m 0 min 0 min 0 W/m 12,9 km/h (3 Bft) 97,87 %
04.12.2021 03:18 3,5 C 3,3 C 1,1 C 96 % 1000,2 hPa 0,0 l/m 0 min 0 min 0 W/m 6,4 km/h (2 Bft) 97,83 %
04.12.2021 03:20 3,5 C 3,3 C 1,1 C 96 % 1000,2 hPa 0,0 l/m 0 min 0 min 0 W/m 6,4 km/h (2 Bft) 93,62 %
04.12.2021 03:22 3,5 C 3,3 C 1,1 C 96 % 1000,2 hPa 0,0 l/m 0 min 0 min 0 W/m 12,9 km/h (3 Bft) 95,74 %
04.12.2021 03:24 3,5 C 3,3 C 1,1 C 96 % 1000,2 hPa 0,0 l/m 0 min 0 min 0 W/m 12,9 km/h (3 Bft) 97,87 %
04.12.2021 03:26 3,5 C 3,3 C 1,1 C 96 % 1000,1 hPa 0,0 l/m 0 min 0 min 0 W/m 12,9 km/h (3 Bft) 95,74 %
04.12.2021 03:28 3,5 C 3,3 C 1,1 C 96 % 1000,1 hPa 0,2 l/m 0 min 0 min 0 W/m 12,9 km/h (3 Bft) 97,87 %
04.12.2021 03:30 3,6 C 3,3 C 1,1 C 96 % 1000,1 hPa 0,0 l/m 0 min 0 min 0 W/m 12,9 km/h (3 Bft) 95,65 %
04.12.2021 03:32 3,6 C 3,3 C 1,1 C 96 % 1000,1 hPa 0,0 l/m 0 min 0 min 0 W/m 12,9 km/h (3 Bft) 93,62 %
04.12.2021 03:34 3,5 C 3,3 C 1,1 C 96 % 1000,1 hPa 0,0 l/m 0 min 0 min 0 W/m 19,3 km/h (3 Bft) 95,74 %
04.12.2021 03:36 3,5 C 3,3 C 1,1 C 96 % 1000,0 hPa 0,0 l/m 0 min 0 min 0 W/m 6,4 km/h (2 Bft) 93,62 %
04.12.2021 03:38 3,6 C 3,3 C 1,1 C 96 % 1000,0 hPa 0,0 l/m 0 min 0 min 0 W/m 12,9 km/h (3 Bft) 89,36 %
04.12.2021 03:40 3,6 C 3,3 C 1,1 C 96 % 1000,0 hPa 0,0 l/m 0 min 0 min 0 W/m 16,1 km/h (3 Bft) 97,87 %
04.12.2021 03:42 3,6 C 3,3 C 1,1 C 96 % 1000,0 hPa 0,0 l/m 0 min 0 min 0 W/m 16,1 km/h (3 Bft) 95,65 %
04.12.2021 03:44 3,6 C 3,3 C 1,1 C 96 % 1000,0 hPa 0,0 l/m 0 min 0 min 0 W/m 16,1 km/h (3 Bft) 95,74 %
04.12.2021 03:46 3,6 C 3,3 C 1,1 C 96 % 999,9 hPa 0,0 l/m 0 min 0 min 0 W/m 6,4 km/h (2 Bft) 93,62 %
04.12.2021 03:48 3,6 C 3,3 C 1,1 C 96 % 999,8 hPa 0,0 l/m 0 min 0 min 0 W/m 16,1 km/h (3 Bft) 93,62 %
04.12.2021 03:50 3,6 C 3,3 C 1,1 C 96 % 999,7 hPa 0,0 l/m 0 min 0 min 0 W/m 12,9 km/h (3 Bft) 93,62 %
04.12.2021 03:52 3,6 C 3,3 C 1,1 C 96 % 999,6 hPa 0,0 l/m 0 min 0 min 0 W/m 16,1 km/h (3 Bft) 95,74 %
04.12.2021 03:54 3,6 C 3,3 C 1,1 C 96 % 999,6 hPa 0,0 l/m 0 min 0 min 0 W/m 16,1 km/h (3 Bft) 95,65 %
04.12.2021 03:56 3,6 C 3,3 C 1,1 C 96 % 999,5 hPa 0,0 l/m 0 min 0 min 0 W/m 12,9 km/h (3 Bft) 95,74 %
04.12.2021 03:58 3,6 C 3,3 C 1,1 C 96 % 999,5 hPa 0,0 l/m 0 min 0 min 0 W/m 12,9 km/h (3 Bft) 97,87 %
04.12.2021 04:00 3,6 C 3,3 C 1,1 C 96 % 999,5 hPa 0,0 l/m 0 min 0 min 0 W/m 9,7 km/h (2 Bft) 97,87 %
04.12.2021 04:05 3,6 C 3,3 C 1,1 C 96 % 999,5 hPa 0,0 l/m 0 min 0 min 0 W/m 19,3 km/h (3 Bft) 97,56 %
04.12.2021 04:06 3,6 C 3,3 C 1,1 C 96 % 999,4 hPa 0,0 l/m 0 min 0 min 0 W/m 6,4 km/h (2 Bft) 100,00 %
04.12.2021 04:08 3,6 C 3,3 C 1,1 C 96 % 999,4 hPa 0,0 l/m 0 min 0 min 0 W/m 12,9 km/h (3 Bft) 97,87 %
04.12.2021 04:10 3,6 C 3,3 C 1,1 C 96 % 999,4 hPa 0,0 l/m 0 min 0 min 0 W/m 6,4 km/h (2 Bft) 100,00 %
04.12.2021 04:12 3,6 C 3,3 C 1,1 C 96 % 999,4 hPa 0,0 l/m 0 min 0 min 0 W/m 12,9 km/h (3 Bft) 100,00 %
04.12.2021 04:14 3,6 C 3,3 C 1,1 C 96 % 999,3 hPa 0,0 l/m 0 min 0 min 0 W/m 6,4 km/h (2 Bft) 100,00 %
04.12.2021 04:16 3,6 C 3,3 C 1,1 C 96 % 999,2 hPa 0,0 l/m 0 min 0 min 0 W/m 12,9 km/h (3 Bft) 100,00 %
04.12.2021 04:18 3,6 C 3,3 C 1,1 C 96 % 999,2 hPa 0,0 l/m 0 min 0 min 0 W/m 16,1 km/h (3 Bft) 100,00 %
04.12.2021 04:20 3,6 C 3,3 C 1,1 C 96 % 999,1 hPa 0,0 l/m 0 min 0 min 0 W/m 16,1 km/h (3 Bft) 100,00 %
04.12.2021 04:22 3,6 C 3,3 C 1,1 C 96 % 999,1 hPa 0,0 l/m 0 min 0 min 0 W/m 19,3 km/h (3 Bft) 100,00 %
04.12.2021 04:24 3,6 C 3,3 C 1,1 C 96 % 999,0 hPa 0,0 l/m 0 min 0 min 0 W/m 12,9 km/h (3 Bft) 100,00 %
04.12.2021 04:26 3,6 C 3,3 C 1,1 C 96 % 999,0 hPa 0,0 l/m 0 min 0 min 0 W/m 12,9 km/h (3 Bft) 100,00 %
04.12.2021 04:28 3,6 C 3,3 C 1,1 C 96 % 999,0 hPa 0,0 l/m 0 min 0 min 0 W/m 16,1 km/h (3 Bft) 100,00 %
04.12.2021 04:30 3,6 C 3,3 C 1,1 C 96 % 999,0 hPa 0,0 l/m 0 min 0 min 0 W/m 12,9 km/h (3 Bft) 100,00 %
04.12.2021 04:32 3,6 C 3,3 C 1,1 C 96 % 998,9 hPa 0,0 l/m 0 min 0 min 0 W/m 12,9 km/h (3 Bft) 100,00 %
04.12.2021 04:34 3,6 C 3,3 C 1,1 C 96 % 998,8 hPa 0,0 l/m 0 min 0 min 0 W/m 16,1 km/h (3 Bft) 100,00 %
04.12.2021 04:36 3,6 C 3,3 C 1,1 C 96 % 998,8 hPa 0,0 l/m 0 min 0 min 0 W/m 12,9 km/h (3 Bft) 100,00 %
04.12.2021 04:38 3,6 C 3,3 C 1,7 C 96 % 998,8 hPa 0,0 l/m 0 min 0 min 0 W/m 9,7 km/h (2 Bft) 100,00 %
04.12.2021 04:40 3,6 C 3,3 C 1,7 C 96 % 998,8 hPa 0,0 l/m 0 min 0 min 0 W/m 16,1 km/h (3 Bft) 100,00 %
04.12.2021 04:42 3,6 C 3,3 C 1,1 C 96 % 998,8 hPa 0,0 l/m 0 min 0 min 0 W/m 16,1 km/h (3 Bft) 80,85 %
04.12.2021 04:44 3,6 C 3,3 C 1,1 C 96 % 998,8 hPa 0,0 l/m 0 min 0 min 0 W/m 16,1 km/h (3 Bft) 71,79 %
04.12.2021 04:46 3,6 C 3,3 C 1,1 C 96 % 998,8 hPa 0,0 l/m 0 min 0 min 0 W/m 22,5 km/h (4 Bft) 100,00 %
04.12.2021 04:48 3,6 C 3,3 C 1,7 C 96 % 998,8 hPa 0,0 l/m 0 min 0 min 0 W/m 16,1 km/h (3 Bft) 97,87 %
04.12.2021 04:50 3,6 C 3,3 C 1,7 C 96 % 998,8 hPa 0,0 l/m 0 min 0 min 0 W/m 16,1 km/h (3 Bft) 97,87 %
04.12.2021 04:52 3,6 C 3,3 C 1,7 C 96 % 998,8 hPa 0,0 l/m 0 min 0 min 0 W/m 12,9 km/h (3 Bft) 100,00 %
04.12.2021 04:54 3,6 C 3,3 C 1,7 C 96 % 998,8 hPa 0,0 l/m 0 min 0 min 0 W/m 12,9 km/h (3 Bft) 100,00 %
04.12.2021 04:56 3,6 C 3,3 C 1,7 C 96 % 998,8 hPa 0,0 l/m 0 min 0 min 0 W/m 12,9 km/h (3 Bft) 95,74 %
04.12.2021 04:58 3,6 C 3,3 C 1,7 C 96 % 998,8 hPa 0,0 l/m 0 min 0 min 0 W/m 12,9 km/h (3 Bft) 97,87 %
04.12.2021 05:00 3,6 C 3,3 C 1,7 C 96 % 998,8 hPa 0,0 l/m 0 min 0 min 0 W/m 6,4 km/h (2 Bft) 100,00 %
04.12.2021 05:02 3,6 C 3,3 C 1,7 C 96 % 998,8 hPa 0,0 l/m 0 min 0 min 0 W/m 12,9 km/h (3 Bft) 100,00 %
04.12.2021 05:04 3,6 C 3,3 C 1,7 C 96 % 998,8 hPa 0,0 l/m 0 min 0 min 0 W/m 6,4 km/h (2 Bft) 100,00 %
04.12.2021 05:06 3,6 C 3,3 C 1,7 C 96 % 998,8 hPa 0,0 l/m 0 min 0 min 0 W/m 6,4 km/h (2 Bft) 100,00 %
04.12.2021 05:08 3,6 C 3,3 C 1,7 C 96 % 998,8 hPa 0,0 l/m 0 min 0 min 0 W/m 12,9 km/h (3 Bft) 100,00 %
04.12.2021 05:10 3,7 C 3,3 C 1,7 C 96 % 998,7 hPa 0,0 l/m 0 min 0 min 0 W/m 6,4 km/h (2 Bft) 100,00 %
04.12.2021 05:12 3,6 C 3,3 C 1,7 C 96 % 998,7 hPa 0,0 l/m 0 min 0 min 0 W/m 6,4 km/h (2 Bft) 100,00 %
04.12.2021 05:14 3,6 C 3,3 C 1,7 C 96 % 998,7 hPa 0,0 l/m 0 min 0 min 0 W/m 12,9 km/h (3 Bft) 100,00 %
04.12.2021 05:16 3,6 C 3,3 C 1,7 C 96 % 998,7 hPa 0,0 l/m 0 min 0 min 0 W/m 12,9 km/h (3 Bft) 100,00 %
04.12.2021 05:18 3,6 C 3,3 C 1,7 C 96 % 998,6 hPa 0,0 l/m 0 min 0 min 0 W/m 12,9 km/h (3 Bft) 95,74 %
04.12.2021 05:20 3,6 C 3,3 C 1,7 C 96 % 998,7 hPa 0,0 l/m 0 min 0 min 0 W/m 12,9 km/h (3 Bft) 100,00 %
04.12.2021 05:22 3,6 C 3,3 C 1,7 C 96 % 998,7 hPa 0,0 l/m 0 min 0 min 0 W/m 16,1 km/h (3 Bft) 97,87 %
04.12.2021 05:24 3,6 C 3,3 C 1,7 C 96 % 998,6 hPa 0,0 l/m 0 min 0 min 0 W/m 12,9 km/h (3 Bft) 97,87 %
04.12.2021 05:26 3,6 C 3,3 C 1,7 C 96 % 998,6 hPa 0,0 l/m 0 min 0 min 0 W/m 6,4 km/h (2 Bft) 95,74 %
04.12.2021 05:28 3,6 C 3,3 C 1,7 C 96 % 998,6 hPa 0,0 l/m 0 min 0 min 0 W/m 12,9 km/h (3 Bft) 97,83 %
04.12.2021 05:30 3,6 C 3,3 C 1,7 C 96 % 998,6 hPa 0,0 l/m 0 min 0 min 0 W/m 12,9 km/h (3 Bft) 97,87 %
04.12.2021 05:32 3,6 C 3,3 C 1,7 C 96 % 998,6 hPa 0,0 l/m 0 min 0 min 0 W/m 6,4 km/h (2 Bft) 98,15 %
04.12.2021 05:34 3,6 C 3,3 C 1,7 C 96 % 998,7 hPa 0,0 l/m 0 min 0 min 0 W/m 6,4 km/h (2 Bft) 97,87 %
04.12.2021 05:36 3,6 C 3,3 C 1,7 C 96 % 998,6 hPa 0,0 l/m 0 min 0 min 0 W/m 12,9 km/h (3 Bft) 97,87 %
04.12.2021 05:38 3,6 C 3,3 C 1,7 C 96 % 998,6 hPa 0,0 l/m 0 min 0 min 0 W/m 12,9 km/h (3 Bft) 95,65 %
04.12.2021 05:40 3,6 C 3,3 C 1,7 C 96 % 998,5 hPa 0,0 l/m 0 min 0 min 0 W/m 12,9 km/h (3 Bft) 97,87 %
04.12.2021 05:42 3,6 C 3,3 C 1,7 C 96 % 998,6 hPa 0,0 l/m 0 min 0 min 0 W/m 16,1 km/h (3 Bft) 95,74 %
04.12.2021 05:44 3,6 C 3,3 C 1,7 C 96 % 998,6 hPa 0,0 l/m 0 min 0 min 0 W/m 19,3 km/h (3 Bft) 95,74 %
04.12.2021 05:46 3,6 C 3,3 C 1,7 C 96 % 998,5 hPa 0,0 l/m 0 min 0 min 0 W/m 16,1 km/h (3 Bft) 95,74 %
04.12.2021 05:48 3,6 C 3,3 C 1,7 C 96 % 998,5 hPa 0,0 l/m 0 min 0 min 0 W/m 12,9 km/h (3 Bft) 91,30 %
04.12.2021 05:50 3,6 C 3,3 C 1,7 C 96 % 998,5 hPa 0,0 l/m 0 min 0 min 0 W/m 12,9 km/h (3 Bft) 95,74 %
04.12.2021 05:52 3,6 C 3,3 C 1,7 C 96 % 998,5 hPa 0,0 l/m 0 min 0 min 0 W/m 12,9 km/h (3 Bft) 93,62 %
04.12.2021 05:54 3,6 C 3,3 C 1,7 C 96 % 998,4 hPa 0,0 l/m 0 min 0 min 0 W/m 12,9 km/h (3 Bft) 93,62 %
04.12.2021 05:56 3,6 C 3,3 C 1,7 C 96 % 998,3 hPa 0,0 l/m 0 min 0 min 0 W/m 16,1 km/h (3 Bft) 93,62 %
04.12.2021 05:58 3,6 C 3,3 C 1,7 C 96 % 998,3 hPa 0,0 l/m 0 min 0 min 0 W/m 9,7 km/h (2 Bft) 95,74 %
04.12.2021 06:00 3,6 C 3,3 C 1,7 C 96 % 998,4 hPa 0,0 l/m 0 min 0 min 0 W/m 6,4 km/h (2 Bft) 95,65 %
04.12.2021 06:02 3,6 C 3,3 C 1,7 C 96 % 998,4 hPa 0,0 l/m 0 min 0 min 0 W/m 12,9 km/h (3 Bft) 95,83 %
04.12.2021 06:04 3,6 C 3,3 C 1,7 C 96 % 998,3 hPa 0,0 l/m 0 min 0 min 0 W/m 12,9 km/h (3 Bft) 95,74 %
04.12.2021 06:08 3,6 C 3,3 C 1,7 C 96 % 998,4 hPa 0,0 l/m 0 min 0 min 0 W/m 19,3 km/h (3 Bft) 95,74 %
04.12.2021 06:13 3,6 C 3,3 C 1,7 C 96 % 998,2 hPa 0,0 l/m 0 min 0 min 0 W/m 16,1 km/h (3 Bft) 93,10 %
04.12.2021 06:14 3,5 C 3,3 C 1,7 C 96 % 998,2 hPa 0,0 l/m 0 min 0 min 0 W/m 6,4 km/h (2 Bft) 95,65 %
04.12.2021 06:16 3,5 C 3,3 C 1,7 C 96 % 998,2 hPa 0,0 l/m 0 min 0 min 0 W/m 12,9 km/h (3 Bft) 93,62 %
04.12.2021 06:18 3,5 C 3,3 C 1,7 C 96 % 998,2 hPa 0,0 l/m 0 min 0 min 0 W/m 16,1 km/h (3 Bft) 100,00 %
04.12.2021 06:23 3,5 C 3,3 C 1,7 C 96 % 998,1 hPa 0,0 l/m 0 min 0 min 0 W/m 12,9 km/h (3 Bft) 95,65 %
04.12.2021 06:24 3,5 C 3,3 C 1,7 C 96 % 998,1 hPa 0,0 l/m 0 min 0 min 0 W/m 12,9 km/h (3 Bft) 100,00 %
04.12.2021 06:26 3,5 C 3,3 C 1,7 C 96 % 998,2 hPa 0,0 l/m 0 min 0 min 0 W/m 16,1 km/h (3 Bft) 93,62 %
04.12.2021 06:28 3,5 C 3,3 C 1,7 C 96 % 998,2 hPa 0,0 l/m 0 min 0 min 0 W/m 19,3 km/h (3 Bft) 95,74 %
04.12.2021 06:30 3,5 C 3,3 C 1,7 C 96 % 998,2 hPa 0,0 l/m 0 min 0 min 0 W/m 16,1 km/h (3 Bft) 95,74 %
04.12.2021 06:32 3,5 C 3,3 C 1,7 C 96 % 998,2 hPa 0,0 l/m 0 min 0 min 0 W/m 16,1 km/h (3 Bft) 97,92 %
04.12.2021 06:34 3,5 C 3,3 C 1,7 C 96 % 998,2 hPa 0,0 l/m 0 min 0 min 0 W/m 12,9 km/h (3 Bft) 97,87 %
04.12.2021 06:36 3,5 C 3,3 C 1,7 C 96 % 998,2 hPa 0,0 l/m 0 min 0 min 0 W/m 19,3 km/h (3 Bft) 97,83 %
04.12.2021 06:38 3,5 C 3,3 C 1,7 C 96 % 998,2 hPa 0,0 l/m 0 min 0 min 0 W/m 16,1 km/h (3 Bft) 97,87 %
04.12.2021 06:40 3,5 C 3,3 C 1,7 C 96 % 998,2 hPa 0,0 l/m 0 min 0 min 0 W/m 16,1 km/h (3 Bft) 59,57 %
04.12.2021 06:42 3,5 C 3,3 C 1,7 C 96 % 998,2 hPa 0,0 l/m 0 min 0 min 0 W/m 12,9 km/h (3 Bft) 94,12 %
04.12.2021 06:44 3,5 C 3,3 C 1,7 C 96 % 998,2 hPa 0,0 l/m 0 min 0 min 0 W/m 9,7 km/h (2 Bft) 100,00 %
04.12.2021 06:46 3,5 C 3,3 C 1,7 C 96 % 998,1 hPa 0,0 l/m 0 min 0 min 0 W/m 9,7 km/h (2 Bft) 95,74 %
04.12.2021 06:48 3,5 C 3,3 C 1,7 C 96 % 998,1 hPa 0,0 l/m 0 min 0 min 0 W/m 9,7 km/h (2 Bft) 100,00 %
04.12.2021 06:50 3,5 C 3,3 C 1,7 C 96 % 998,2 hPa 0,0 l/m 0 min 0 min 0 W/m 6,4 km/h (2 Bft) 100,00 %
04.12.2021 06:52 3,5 C 3,3 C 1,7 C 96 % 998,2 hPa 0,0 l/m 0 min 0 min 0 W/m 12,9 km/h (3 Bft) 100,00 %
04.12.2021 06:54 3,5 C 3,3 C 1,7 C 96 % 998,1 hPa 0,0 l/m 0 min 0 min 0 W/m 19,3 km/h (3 Bft) 100,00 %
04.12.2021 06:56 3,6 C 3,3 C 1,7 C 96 % 998,1 hPa 0,0 l/m 0 min 0 min 0 W/m 12,9 km/h (3 Bft) 97,87 %
04.12.2021 06:58 3,5 C 3,3 C 1,7 C 96 % 998,1 hPa 0,0 l/m 0 min 0 min 0 W/m 12,9 km/h (3 Bft) 97,87 %
04.12.2021 07:00 3,5 C 3,3 C 1,7 C 96 % 998,2 hPa 0,0 l/m 0 min 0 min 0 W/m 16,1 km/h (3 Bft) 100,00 %
04.12.2021 07:02 3,6 C 3,3 C 1,7 C 96 % 998,2 hPa 0,0 l/m 0 min 0 min 0 W/m 16,1 km/h (3 Bft) 100,00 %
04.12.2021 07:04 3,6 C 3,3 C 1,7 C 96 % 998,1 hPa 0,0 l/m 0 min 0 min 0 W/m 16,1 km/h (3 Bft) 100,00 %
04.12.2021 07:05 3,6 C 3,3 C 1,7 C 96 % 998,1 hPa 0,0 l/m 0 min 0 min 0 W/m 16,1 km/h (3 Bft) 100,00 %
04.12.2021 07:10 3,5 C 3,3 C 1,7 C 96 % 998,0 hPa 0,0 l/m 0 min 0 min 0 W/m 16,1 km/h (3 Bft) 100,00 %
04.12.2021 07:14 3,5 C 3,3 C 1,7 C 96 % 998,0 hPa 0,0 l/m 0 min 0 min 0 W/m 6,4 km/h (2 Bft) 100,00 %
04.12.2021 07:16 3,6 C 3,3 C 1,7 C 96 % 998,0 hPa 0,0 l/m 0 min 0 min 0 W/m 16,1 km/h (3 Bft) 98,00 %
04.12.2021 07:18 3,6 C 3,3 C 1,7 C 96 % 998,0 hPa 0,0 l/m 0 min 0 min 0 W/m 12,9 km/h (3 Bft) 95,74 %
04.12.2021 07:20 3,6 C 3,3 C 1,7 C 96 % 997,9 hPa 0,0 l/m 0 min 0 min 0 W/m 16,1 km/h (3 Bft) 97,87 %
04.12.2021 07:22 3,6 C 3,3 C 1,7 C 96 % 997,9 hPa 0,0 l/m 0 min 0 min 0 W/m 12,9 km/h (3 Bft) 97,83 %
04.12.2021 07:24 3,5 C 3,3 C 1,7 C 96 % 998,0 hPa 0,0 l/m 0 min 0 min 0 W/m 16,1 km/h (3 Bft) 97,87 %
04.12.2021 07:26 3,6 C 3,3 C 1,7 C 96 % 998,0 hPa 0,0 l/m 0 min 0 min 0 W/m 6,4 km/h (2 Bft) 95,74 %
04.12.2021 07:28 3,6 C 3,3 C 1,7 C 96 % 998,0 hPa 0,0 l/m 0 min 0 min 0 W/m 16,1 km/h (3 Bft) 95,74 %
04.12.2021 07:30 3,6 C 3,3 C 1,7 C 96 % 998,0 hPa 0,0 l/m 0 min 0 min 0 W/m 6,4 km/h (2 Bft) 97,87 %
04.12.2021 07:32 3,6 C 3,3 C 1,7 C 96 % 998,0 hPa 0,0 l/m 0 min 0 min 0 W/m 12,9 km/h (3 Bft) 93,62 %
04.12.2021 07:34 3,6 C 3,3 C 1,7 C 96 % 998,0 hPa 0,0 l/m 0 min 0 min 0 W/m 12,9 km/h (3 Bft) 97,83 %
04.12.2021 07:36 3,6 C 3,3 C 1,7 C 96 % 998,0 hPa 0,0 l/m 0 min 0 min 0 W/m 12,9 km/h (3 Bft) 97,87 %
04.12.2021 07:38 3,6 C 3,3 C 1,7 C 96 % 997,9 hPa 0,0 l/m 0 min 0 min 0 W/m 6,4 km/h (2 Bft) 97,87 %
04.12.2021 07:40 3,6 C 3,3 C 1,7 C 96 % 997,9 hPa 0,0 l/m 0 min 0 min 0 W/m 16,1 km/h (3 Bft) 97,87 %
04.12.2021 07:42 3,6 C 3,3 C 1,7 C 96 % 997,9 hPa 0,0 l/m 0 min 0 min 0 W/m 9,7 km/h (2 Bft) 97,87 %
04.12.2021 07:44 3,6 C 3,3 C 1,7 C 96 % 997,9 hPa 0,0 l/m 0 min 0 min 0 W/m 6,4 km/h (2 Bft) 97,83 %
04.12.2021 07:46 3,6 C 3,3 C 1,7 C 96 % 997,9 hPa 0,0 l/m 0 min 0 min 0 W/m 12,9 km/h (3 Bft) 100,00 %
04.12.2021 07:48 3,6 C 3,3 C 1,7 C 96 % 997,9 hPa 0,0 l/m 0 min 0 min 0 W/m 6,4 km/h (2 Bft) 100,00 %
04.12.2021 07:50 3,6 C 3,3 C 1,7 C 96 % 997,9 hPa 0,0 l/m 0 min 0 min 0 W/m 6,4 km/h (2 Bft) 100,00 %
04.12.2021 07:52 3,6 C 3,3 C 1,7 C 96 % 997,9 hPa 0,0 l/m 0 min 0 min 0 W/m 6,4 km/h (2 Bft) 100,00 %
04.12.2021 07:54 3,6 C 3,3 C 1,7 C 96 % 997,9 hPa 0,0 l/m 0 min 0 min 0 W/m 12,9 km/h (3 Bft) 100,00 %
04.12.2021 07:56 3,6 C 3,3 C 1,7 C 96 % 997,9 hPa 0,0 l/m 0 min 0 min 0 W/m 12,9 km/h (3 Bft) 97,83 %
04.12.2021 07:58 3,6 C 3,3 C 1,7 C 96 % 997,9 hPa 0,0 l/m 0 min 0 min 0 W/m 16,1 km/h (3 Bft) 97,87 %
04.12.2021 08:00 3,6 C 3,3 C 1,7 C 96 % 998,0 hPa 0,0 l/m 0 min 0 min 0 W/m 6,4 km/h (2 Bft) 100,00 %
04.12.2021 08:02 3,6 C 3,3 C 1,7 C 96 % 997,9 hPa 0,0 l/m 0 min 0 min 0 W/m 6,4 km/h (2 Bft) 95,74 %
04.12.2021 08:04 3,6 C 3,3 C 1,7 C 96 % 997,9 hPa 0,0 l/m 0 min 0 min 0 W/m 6,4 km/h (2 Bft) 100,00 %
04.12.2021 08:06 3,6 C 3,3 C 1,7 C 96 % 997,9 hPa 0,0 l/m 0 min 0 min 0 W/m 12,9 km/h (3 Bft) 97,87 %
04.12.2021 08:08 3,6 C 3,3 C 1,7 C 96 % 997,9 hPa 0,0 l/m 0 min 0 min 0 W/m 12,9 km/h (3 Bft) 100,00 %
04.12.2021 08:10 3,6 C 3,3 C 1,7 C 96 % 997,9 hPa 0,0 l/m 0 min 0 min 0 W/m 6,4 km/h (2 Bft) 97,83 %
04.12.2021 08:12 3,6 C 3,3 C 1,7 C 96 % 997,9 hPa 0,0 l/m 0 min 0 min 0 W/m 6,4 km/h (2 Bft) 97,87 %
04.12.2021 08:14 3,6 C 3,3 C 1,7 C 96 % 997,9 hPa 0,0 l/m 0 min 0 min 0 W/m 6,4 km/h (2 Bft) 97,87 %
04.12.2021 08:16 3,6 C 3,3 C 1,7 C 96 % 997,9 hPa 0,0 l/m 0 min 0 min 0 W/m 6,4 km/h (2 Bft) 97,87 %
04.12.2021 08:18 3,6 C 3,3 C 1,7 C 96 % 997,9 hPa 0,0 l/m 0 min 0 min 0 W/m 6,4 km/h (2 Bft) 95,74 %
04.12.2021 08:20 3,6 C 3,3 C 1,7 C 96 % 997,9 hPa 0,0 l/m 0 min 0 min 0 W/m 6,4 km/h (2 Bft) 97,83 %
04.12.2021 08:22 3,6 C 3,3 C 1,7 C 96 % 997,9 hPa 0,0 l/m 0 min 0 min 0 W/m 12,9 km/h (3 Bft) 93,62 %
04.12.2021 08:24 3,6 C 3,3 C 1,7 C 96 % 997,9 hPa 0,0 l/m 0 min 0 min 0 W/m 6,4 km/h (2 Bft) 97,87 %
04.12.2021 08:26 3,6 C 3,3 C 1,7 C 96 % 997,9 hPa 0,0 l/m 0 min 0 min 0 W/m 16,1 km/h (3 Bft) 97,87 %
04.12.2021 08:28 3,6 C 3,3 C 1,7 C 96 % 997,9 hPa 0,0 l/m 0 min 0 min 0 W/m 12,9 km/h (3 Bft) 97,87 %
04.12.2021 08:30 3,6 C 3,3 C 1,7 C 96 % 997,9 hPa 0,0 l/m 0 min 0 min 0 W/m 16,1 km/h (3 Bft) 97,87 %
04.12.2021 08:32 3,6 C 3,3 C 1,7 C 96 % 998,0 hPa 0,0 l/m 0 min 0 min 0 W/m 9,7 km/h (2 Bft) 97,83 %
04.12.2021 08:34 3,6 C 3,3 C 1,7 C 96 % 998,0 hPa 0,0 l/m 0 min 0 min 0 W/m 12,9 km/h (3 Bft) 97,87 %
04.12.2021 08:36 3,6 C 3,3 C 1,7 C 96 % 998,0 hPa 0,0 l/m 0 min 0 min 0 W/m 12,9 km/h (3 Bft) 97,87 %
04.12.2021 08:38 3,6 C 3,3 C 1,7 C 96 % 998,0 hPa 0,0 l/m 0 min 0 min 0 W/m 6,4 km/h (2 Bft) 97,87 %
04.12.2021 08:40 3,6 C 3,3 C 1,7 C 96 % 998,0 hPa 0,0 l/m 0 min 0 min 0 W/m 12,9 km/h (3 Bft) 95,74 %
04.12.2021 08:42 3,6 C 3,3 C 1,7 C 96 % 997,9 hPa 0,0 l/m 0 min 0 min 0 W/m 16,1 km/h (3 Bft) 95,74 %
04.12.2021 08:44 3,6 C 3,3 C 1,7 C 96 % 998,0 hPa 0,0 l/m 0 min 0 min 1 W/m 16,1 km/h (3 Bft) 95,65 %
04.12.2021 08:46 3,6 C 3,3 C 1,7 C 96 % 998,0 hPa 0,0 l/m 0 min 0 min 5 W/m 16,1 km/h (3 Bft) 97,87 %
04.12.2021 08:48 3,7 C 3,3 C 1,7 C 96 % 998,1 hPa 0,0 l/m 0 min 0 min 5 W/m 12,9 km/h (3 Bft) 97,87 %
04.12.2021 08:50 3,6 C 3,3 C 1,7 C 96 % 998,0 hPa 0,0 l/m 0 min 0 min 5 W/m 12,9 km/h (3 Bft) 97,87 %
04.12.2021 08:52 3,7 C 3,3 C 1,7 C 96 % 998,1 hPa 0,0 l/m 0 min 0 min 6 W/m 12,9 km/h (3 Bft) 97,87 %
04.12.2021 08:54 3,7 C 3,3 C 1,7 C 96 % 998,0 hPa 0,0 l/m 0 min 0 min 7 W/m 12,9 km/h (3 Bft) 97,87 %
04.12.2021 08:56 3,7 C 3,3 C 1,7 C 96 % 998,0 hPa 0,0 l/m 0 min 0 min 7 W/m 16,1 km/h (3 Bft) 95,65 %
04.12.2021 08:58 3,7 C 3,3 C 1,7 C 96 % 998,0 hPa 0,0 l/m 0 min 0 min 9 W/m 16,1 km/h (3 Bft) 97,87 %
04.12.2021 09:00 3,7 C 3,3 C 1,7 C 96 % 998,0 hPa 0,0 l/m 0 min 0 min 9 W/m 12,9 km/h (3 Bft) 97,87 %
04.12.2021 09:02 3,7 C 3,3 C 1,7 C 96 % 997,9 hPa 0,0 l/m 0 min 0 min 11 W/m 16,1 km/h (3 Bft) 95,74 %
04.12.2021 09:04 3,7 C 3,3 C 1,7 C 96 % 997,9 hPa 0,0 l/m 0 min 0 min 11 W/m 12,9 km/h (3 Bft) 93,62 %
04.12.2021 09:06 3,7 C 3,3 C 1,7 C 96 % 998,0 hPa 0,0 l/m 0 min 0 min 11 W/m 19,3 km/h (3 Bft) 95,74 %
04.12.2021 09:08 3,7 C 3,3 C 1,7 C 96 % 997,9 hPa 0,0 l/m 0 min 0 min 12 W/m 19,3 km/h (3 Bft) 95,65 %
04.12.2021 09:10 3,7 C 3,3 C 1,7 C 96 % 997,9 hPa 0,0 l/m 0 min 0 min 15 W/m 12,9 km/h (3 Bft) 95,74 %
04.12.2021 09:12 3,7 C 3,3 C 1,7 C 96 % 997,9 hPa 0,0 l/m 0 min 0 min 18 W/m 12,9 km/h (3 Bft) 95,74 %
04.12.2021 09:14 3,7 C 3,3 C 2,2 C 96 % 997,9 hPa 0,0 l/m 0 min 0 min 21 W/m 12,9 km/h (3 Bft) 95,74 %
04.12.2021 09:16 3,7 C 3,3 C 2,2 C 96 % 997,9 hPa 0,0 l/m 0 min 0 min 25 W/m 12,9 km/h (3 Bft) 95,74 %
04.12.2021 09:18 3,7 C 3,3 C 2,2 C 96 % 997,9 hPa 0,0 l/m 0 min 0 min 27 W/m 16,1 km/h (3 Bft) 95,74 %
04.12.2021 09:20 3,8 C 3,3 C 2,2 C 96 % 997,9 hPa 0,0 l/m 0 min 0 min 28 W/m 12,9 km/h (3 Bft) 95,65 %
04.12.2021 09:22 3,8 C 3,3 C 2,2 C 96 % 997,9 hPa 0,0 l/m 0 min 0 min 33 W/m 16,1 km/h (3 Bft) 93,62 %
04.12.2021 09:24 3,8 C 3,3 C 2,2 C 96 % 997,8 hPa 0,0 l/m 0 min 0 min 36 W/m 12,9 km/h (3 Bft) 93,62 %
04.12.2021 09:26 3,8 C 3,3 C 2,2 C 96 % 997,8 hPa 0,0 l/m 0 min 0 min 37 W/m 12,9 km/h (3 Bft) 95,74 %
04.12.2021 09:28 3,8 C 3,3 C 2,2 C 96 % 997,8 hPa 0,0 l/m 0 min 0 min 36 W/m 12,9 km/h (3 Bft) 95,74 %
04.12.2021 09:30 3,8 C 3,3 C 2,2 C 96 % 997,9 hPa 0,0 l/m 0 min 0 min 35 W/m 6,4 km/h (2 Bft) 95,74 %
04.12.2021 09:32 3,8 C 3,3 C 2,2 C 96 % 997,8 hPa 0,0 l/m 0 min 0 min 35 W/m 12,9 km/h (3 Bft) 95,65 %
04.12.2021 09:34 3,8 C 3,3 C 2,2 C 96 % 997,8 hPa 0,0 l/m 0 min 0 min 35 W/m 12,9 km/h (3 Bft) 95,74 %
04.12.2021 09:36 3,8 C 3,3 C 2,2 C 96 % 997,8 hPa 0,0 l/m 0 min 0 min 36 W/m 9,7 km/h (2 Bft) 97,87 %
04.12.2021 09:38 3,9 C 3,9 C 2,2 C 96 % 997,8 hPa 0,0 l/m 0 min 0 min 38 W/m 9,7 km/h (2 Bft) 95,74 %
04.12.2021 09:40 3,9 C 3,9 C 2,2 C 96 % 997,8 hPa 0,0 l/m 0 min 0 min 39 W/m 12,9 km/h (3 Bft) 97,87 %
04.12.2021 09:42 3,9 C 3,9 C 2,2 C 96 % 997,7 hPa 0,0 l/m 0 min 0 min 36 W/m 12,9 km/h (3 Bft) 97,87 %
04.12.2021 09:44 3,9 C 3,9 C 2,2 C 96 % 997,8 hPa 0,0 l/m 0 min 0 min 35 W/m 12,9 km/h (3 Bft) 95,65 %
04.12.2021 09:46 3,9 C 3,9 C 2,2 C 96 % 997,7 hPa 0,0 l/m 0 min 0 min 35 W/m 12,9 km/h (3 Bft) 93,62 %
04.12.2021 09:48 3,9 C 3,9 C 2,2 C 96 % 997,7 hPa 0,0 l/m 0 min 0 min 34 W/m 12,9 km/h (3 Bft) 95,74 %
04.12.2021 09:50 3,9 C 3,9 C 2,2 C 96 % 997,7 hPa 0,0 l/m 0 min 0 min 38 W/m 12,9 km/h (3 Bft) 100,00 %
04.12.2021 09:52 3,9 C 3,9 C 2,2 C 96 % 997,7 hPa 0,0 l/m 0 min 0 min 40 W/m 12,9 km/h (3 Bft) 100,00 %
04.12.2021 09:54 3,9 C 3,9 C 2,2 C 96 % 997,7 hPa 0,0 l/m 0 min 0 min 36 W/m 12,9 km/h (3 Bft) 97,83 %
04.12.2021 09:56 3,9 C 3,9 C 2,2 C 96 % 997,6 hPa 0,0 l/m 0 min 0 min 28 W/m 16,1 km/h (3 Bft) 95,74 %
04.12.2021 09:58 3,9 C 3,9 C 2,2 C 96 % 997,6 hPa 0,0 l/m 0 min 0 min 22 W/m 16,1 km/h (3 Bft) 100,00 %
04.12.2021 10:00 3,9 C 3,9 C 2,2 C 96 % 997,6 hPa 0,0 l/m 0 min 0 min 25 W/m 16,1 km/h (3 Bft) 100,00 %
04.12.2021 10:02 3,9 C 3,9 C 2,2 C 96 % 997,6 hPa 0,0 l/m 0 min 0 min 26 W/m 19,3 km/h (3 Bft) 100,00 %
04.12.2021 10:04 3,9 C 3,9 C 2,2 C 96 % 997,7 hPa 0,0 l/m 0 min 0 min 31 W/m 16,1 km/h (3 Bft) 97,87 %
04.12.2021 10:06 3,9 C 3,9 C 2,2 C 96 % 997,7 hPa 0,0 l/m 0 min 0 min 33 W/m 16,1 km/h (3 Bft) 95,65 %
04.12.2021 10:08 3,9 C 3,9 C 2,2 C 96 % 997,7 hPa 0,0 l/m 0 min 0 min 33 W/m 12,9 km/h (3 Bft) 100,00 %
04.12.2021 10:10 3,9 C 3,9 C 2,2 C 96 % 997,7 hPa 0,0 l/m 0 min 0 min 34 W/m 12,9 km/h (3 Bft) 100,00 %
04.12.2021 10:12 3,9 C 3,9 C 2,2 C 96 % 997,6 hPa 0,0 l/m 0 min 0 min 39 W/m 19,3 km/h (3 Bft) 100,00 %
04.12.2021 10:14 3,9 C 3,9 C 2,2 C 96 % 997,6 hPa 0,0 l/m 0 min 0 min 46 W/m 6,4 km/h (2 Bft) 100,00 %
04.12.2021 10:16 4,0 C 3,9 C 2,2 C 96 % 997,5 hPa 0,0 l/m 0 min 0 min 56 W/m 16,1 km/h (3 Bft) 97,87 %
04.12.2021 10:18 4,0 C 3,9 C 2,2 C 96 % 997,6 hPa 0,0 l/m 0 min 0 min 68 W/m 19,3 km/h (3 Bft) 97,83 %
04.12.2021 10:20 4,0 C 3,9 C 2,2 C 96 % 997,5 hPa 0,0 l/m 0 min 0 min 72 W/m 19,3 km/h (3 Bft) 100,00 %
04.12.2021 10:22 4,0 C 3,9 C 2,2 C 96 % 997,5 hPa 0,0 l/m 0 min 0 min 73 W/m 6,4 km/h (2 Bft) 100,00 %
04.12.2021 10:24 4,0 C 3,9 C 2,2 C 96 % 997,5 hPa 0,0 l/m 0 min 0 min 80 W/m 12,9 km/h (3 Bft) 93,62 %
04.12.2021 10:26 4,0 C 3,9 C 2,2 C 96 % 997,4 hPa 0,0 l/m 0 min 0 min 89 W/m 16,1 km/h (3 Bft) 100,00 %
04.12.2021 10:28 4,0 C 3,9 C 2,2 C 96 % 997,4 hPa 0,0 l/m 0 min 0 min 96 W/m 16,1 km/h (3 Bft) 100,00 %
04.12.2021 10:30 4,0 C 4,4 C 2,8 C 96 % 997,3 hPa 0,0 l/m 0 min 0 min 97 W/m 16,1 km/h (3 Bft) 100,00 %
04.12.2021 10:32 4,0 C 4,4 C 2,8 C 96 % 997,3 hPa 0,0 l/m 0 min 0 min 96 W/m 12,9 km/h (3 Bft) 97,87 %
04.12.2021 10:34 4,1 C 4,4 C 2,8 C 96 % 997,2 hPa 0,0 l/m 0 min 0 min 96 W/m 16,1 km/h (3 Bft) 100,00 %
04.12.2021 10:36 4,1 C 4,4 C 2,8 C 96 % 997,1 hPa 0,0 l/m 0 min 0 min 110 W/m 16,1 km/h (3 Bft) 97,87 %
04.12.2021 10:38 4,1 C 4,4 C 2,8 C 96 % 997,1 hPa 0,0 l/m 0 min 0 min 105 W/m 16,1 km/h (3 Bft) 97,87 %
04.12.2021 10:40 4,1 C 4,4 C 2,8 C 96 % 997,1 hPa 0,0 l/m 0 min 0 min 111 W/m 16,1 km/h (3 Bft) 97,83 %
04.12.2021 10:42 4,1 C 4,4 C 2,8 C 96 % 997,1 hPa 0,0 l/m 0 min 0 min 121 W/m 16,1 km/h (3 Bft) 95,74 %
04.12.2021 10:44 4,1 C 4,4 C 2,8 C 96 % 997,1 hPa 0,0 l/m 2 min 0 min 135 W/m 19,3 km/h (3 Bft) 100,00 %
04.12.2021 10:46 4,1 C 4,4 C 2,8 C 96 % 997,0 hPa 0,0 l/m 2 min 0 min 142 W/m 16,1 km/h (3 Bft) 100,00 %
04.12.2021 10:48 4,1 C 4,4 C 2,8 C 96 % 997,1 hPa 0,0 l/m 2 min 0 min 134 W/m 19,3 km/h (3 Bft) 100,00 %
04.12.2021 10:50 4,2 C 5,0 C 2,8 C 96 % 997,1 hPa 0,0 l/m 2 min 0 min 139 W/m 19,3 km/h (3 Bft) 90,48 %
04.12.2021 10:52 4,2 C 5,0 C 2,8 C 96 % 997,1 hPa 0,0 l/m 2 min 0 min 139 W/m 16,1 km/h (3 Bft) 100,00 %
04.12.2021 10:54 4,3 C 5,0 C 2,8 C 96 % 997,1 hPa 0,0 l/m 2 min 0 min 140 W/m 19,3 km/h (3 Bft) 97,87 %
04.12.2021 10:56 4,3 C 5,0 C 2,8 C 96 % 997,0 hPa 0,0 l/m 2 min 0 min 140 W/m 16,1 km/h (3 Bft) 95,74 %
04.12.2021 10:58 4,3 C 5,0 C 2,8 C 96 % 996,9 hPa 0,0 l/m 0 min 0 min 112 W/m 12,9 km/h (3 Bft) 97,87 %
04.12.2021 11:00 4,3 C 5,0 C 2,8 C 96 % 996,9 hPa 0,0 l/m 0 min 0 min 98 W/m 19,3 km/h (3 Bft) 97,87 %
04.12.2021 11:02 4,3 C 5,0 C 2,8 C 96 % 996,9 hPa 0,0 l/m 0 min 0 min 106 W/m 16,1 km/h (3 Bft) 93,62 %
04.12.2021 11:04 4,4 C 5,0 C 2,8 C 96 % 996,9 hPa 0,0 l/m 0 min 0 min 124 W/m 12,9 km/h (3 Bft) 95,65 %
04.12.2021 11:06 4,4 C 5,0 C 2,8 C 96 % 996,8 hPa 0,0 l/m 0 min 0 min 140 W/m 19,3 km/h (3 Bft) 95,74 %
04.12.2021 11:08 4,4 C 5,0 C 3,3 C 96 % 996,8 hPa 0,0 l/m 2 min 0 min 152 W/m 12,9 km/h (3 Bft) 95,74 %
04.12.2021 11:10 4,4 C 5,0 C 3,3 C 96 % 996,8 hPa 0,0 l/m 2 min 0 min 145 W/m 12,9 km/h (3 Bft) 95,74 %
04.12.2021 11:12 4,4 C 5,0 C 3,3 C 96 % 996,8 hPa 0,0 l/m 0 min 0 min 134 W/m 19,3 km/h (3 Bft) 95,74 %
04.12.2021 11:14 4,5 C 5,0 C 3,3 C 96 % 996,7 hPa 0,0 l/m 0 min 0 min 128 W/m 12,9 km/h (3 Bft) 95,74 %
04.12.2021 11:16 4,5 C 5,0 C 3,3 C 96 % 996,7 hPa 0,0 l/m 0 min 0 min 124 W/m 12,9 km/h (3 Bft) 95,65 %
04.12.2021 11:18 4,5 C 5,0 C 3,3 C 96 % 996,7 hPa 0,0 l/m 0 min 0 min 108 W/m 16,1 km/h (3 Bft) 95,74 %
04.12.2021 11:20 4,5 C 5,0 C 3,3 C 96 % 996,7 hPa 0,0 l/m 0 min 0 min 91 W/m 19,3 km/h (3 Bft) 95,74 %
04.12.2021 11:22 4,6 C 5,0 C 3,3 C 96 % 996,7 hPa 0,0 l/m 0 min 0 min 83 W/m 25,7 km/h (4 Bft) 95,74 %
04.12.2021 11:24 4,6 C 4,4 C 3,3 C 96 % 996,7 hPa 0,0 l/m 0 min 0 min 81 W/m 22,5 km/h (4 Bft) 97,87 %
04.12.2021 11:26 4,6 C 4,4 C 3,3 C 95 % 996,7 hPa 0,0 l/m 0 min 0 min 79 W/m 19,3 km/h (3 Bft) 97,87 %
04.12.2021 11:28 4,6 C 4,4 C 3,3 C 95 % 996,7 hPa 0,0 l/m 0 min 0 min 77 W/m 9,7 km/h (2 Bft) 97,83 %
04.12.2021 11:30 4,6 C 4,4 C 3,3 C 95 % 996,7 hPa 0,0 l/m 0 min 0 min 77 W/m 12,9 km/h (3 Bft) 97,87 %
04.12.2021 11:32 4,6 C 4,4 C 3,3 C 95 % 996,7 hPa 0,0 l/m 0 min 0 min 77 W/m 19,3 km/h (3 Bft) 100,00 %
04.12.2021 11:34 4,6 C 4,4 C 2,8 C 95 % 996,6 hPa 0,0 l/m 0 min 0 min 85 W/m 16,1 km/h (3 Bft) 100,00 %
04.12.2021 11:36 4,6 C 5,0 C 3,3 C 95 % 996,5 hPa 0,0 l/m 0 min 0 min 109 W/m 12,9 km/h (3 Bft) 97,87 %
04.12.2021 11:38 4,6 C 5,0 C 3,3 C 95 % 996,4 hPa 0,0 l/m 0 min 0 min 134 W/m 16,1 km/h (3 Bft) 100,00 %
04.12.2021 11:40 4,7 C 5,0 C 3,3 C 95 % 996,3 hPa 0,0 l/m 0 min 0 min 130 W/m 12,9 km/h (3 Bft) 100,00 %
04.12.2021 11:42 4,7 C 5,0 C 3,3 C 95 % 996,2 hPa 0,0 l/m 0 min 0 min 125 W/m 12,9 km/h (3 Bft) 97,87 %
04.12.2021 11:44 4,8 C 5,0 C 3,3 C 95 % 996,2 hPa 0,0 l/m 0 min 0 min 117 W/m 9,7 km/h (2 Bft) 97,87 %
04.12.2021 11:46 4,8 C 5,0 C 3,3 C 95 % 996,3 hPa 0,0 l/m 0 min 0 min 108 W/m 12,9 km/h (3 Bft) 100,00 %
04.12.2021 11:48 4,8 C 5,0 C 3,3 C 95 % 996,3 hPa 0,0 l/m 0 min 0 min 97 W/m 19,3 km/h (3 Bft) 100,00 %
04.12.2021 11:50 4,8 C 5,0 C 3,3 C 95 % 996,3 hPa 0,0 l/m 0 min 0 min 88 W/m 19,3 km/h (3 Bft) 100,00 %
04.12.2021 11:52 4,8 C 5,0 C 3,3 C 95 % 996,2 hPa 0,0 l/m 0 min 0 min 78 W/m 19,3 km/h (3 Bft) 100,00 %
04.12.2021 11:54 4,8 C 5,0 C 3,3 C 95 % 996,2 hPa 0,0 l/m 0 min 0 min 78 W/m 12,9 km/h (3 Bft) 97,87 %
04.12.2021 11:56 4,8 C 5,0 C 3,3 C 95 % 996,1 hPa 0,0 l/m 0 min 0 min 76 W/m 16,1 km/h (3 Bft) 97,87 %
04.12.2021 11:58 4,8 C 5,0 C 3,3 C 95 % 996,1 hPa 0,0 l/m 0 min 0 min 73 W/m 9,7 km/h (2 Bft) 100,00 %
04.12.2021 12:00 4,8 C 5,0 C 3,3 C 95 % 996,0 hPa 0,0 l/m 0 min 0 min 74 W/m 16,1 km/h (3 Bft) 95,74 %
04.12.2021 12:02 4,8 C 5,0 C 3,3 C 94 % 995,9 hPa 0,0 l/m 0 min 0 min 73 W/m 16,1 km/h (3 Bft) 93,48 %
04.12.2021 12:04 4,8 C 4,4 C 3,3 C 94 % 995,8 hPa 0,0 l/m 0 min 0 min 72 W/m 12,9 km/h (3 Bft) 97,87 %
04.12.2021 12:06 4,8 C 4,4 C 3,3 C 94 % 995,8 hPa 0,0 l/m 0 min 0 min 73 W/m 16,1 km/h (3 Bft) 95,74 %
04.12.2021 12:08 4,8 C 4,4 C 3,3 C 94 % 995,7 hPa 0,0 l/m 0 min 0 min 76 W/m 19,3 km/h (3 Bft) 97,87 %
04.12.2021 12:10 4,8 C 4,4 C 3,3 C 94 % 995,7 hPa 0,0 l/m 0 min 0 min 75 W/m 16,1 km/h (3 Bft) 97,87 %
04.12.2021 12:12 4,8 C 4,4 C 3,3 C 94 % 995,7 hPa 0,0 l/m 0 min 0 min 72 W/m 19,3 km/h (3 Bft) 97,87 %
04.12.2021 12:14 4,9 C 4,4 C 3,3 C 94 % 995,7 hPa 0,0 l/m 0 min 0 min 75 W/m 16,1 km/h (3 Bft) 95,65 %
04.12.2021 12:16 4,8 C 5,0 C 3,3 C 94 % 995,6 hPa 0,0 l/m 0 min 0 min 80 W/m 6,4 km/h (2 Bft) 95,74 %
04.12.2021 12:18 4,9 C 5,0 C 3,3 C 94 % 995,6 hPa 0,0 l/m 0 min 0 min 80 W/m 19,3 km/h (3 Bft) 97,87 %
04.12.2021 12:20 4,9 C 5,0 C 3,3 C 94 % 995,6 hPa 0,0 l/m 0 min 0 min 68 W/m 16,1 km/h (3 Bft) 97,87 %
04.12.2021 12:22 4,9 C 5,0 C 3,3 C 94 % 995,6 hPa 0,0 l/m 0 min 0 min 66 W/m 6,4 km/h (2 Bft) 97,87 %
04.12.2021 12:24 4,9 C 5,0 C 3,3 C 94 % 995,4 hPa 0,0 l/m 0 min 0 min 73 W/m 12,9 km/h (3 Bft) 97,87 %
04.12.2021 12:26 4,9 C 5,0 C 3,3 C 94 % 995,4 hPa 0,0 l/m 0 min 0 min 77 W/m 12,9 km/h (3 Bft) 97,83 %
04.12.2021 12:28 4,9 C 5,0 C 3,3 C 94 % 995,4 hPa 0,0 l/m 0 min 0 min 79 W/m 19,3 km/h (3 Bft) 97,87 %
04.12.2021 12:30 4,9 C 5,0 C 3,3 C 94 % 995,3 hPa 0,0 l/m 0 min 0 min 81 W/m 16,1 km/h (3 Bft) 97,87 %
04.12.2021 12:32 4,9 C 5,0 C 3,3 C 94 % 995,2 hPa 0,0 l/m 0 min 0 min 80 W/m 16,1 km/h (3 Bft) 95,74 %
04.12.2021 12:34 4,9 C 5,0 C 3,3 C 93 % 995,2 hPa 0,0 l/m 0 min 0 min 78 W/m 12,9 km/h (3 Bft) 97,87 %
04.12.2021 12:36 4,9 C 5,0 C 3,3 C 93 % 995,2 hPa 0,0 l/m 0 min 0 min 82 W/m 12,9 km/h (3 Bft) 97,87 %
04.12.2021 12:38 4,9 C 5,0 C 3,3 C 93 % 995,3 hPa 0,0 l/m 0 min 0 min 81 W/m 16,1 km/h (3 Bft) 97,83 %
04.12.2021 12:40 5,0 C 5,0 C 3,3 C 93 % 995,3 hPa 0,0 l/m 0 min 0 min 73 W/m 16,1 km/h (3 Bft) 97,87 %
04.12.2021 12:42 5,0 C 5,0 C 3,3 C 93 % 995,2 hPa 0,0 l/m 0 min 0 min 74 W/m 19,3 km/h (3 Bft) 100,00 %
04.12.2021 12:44 5,0 C 5,0 C 3,3 C 93 % 995,2 hPa 0,0 l/m 0 min 0 min 83 W/m 12,9 km/h (3 Bft) 100,00 %
04.12.2021 12:46 5,0 C 5,0 C 3,3 C 93 % 995,1 hPa 0,0 l/m 0 min 0 min 90 W/m 12,9 km/h (3 Bft) 100,00 %
04.12.2021 12:48 5,0 C 5,0 C 3,3 C 93 % 995,1 hPa 0,0 l/m 0 min 0 min 79 W/m 16,1 km/h (3 Bft) 100,00 %
04.12.2021 12:50 5,0 C 5,0 C 3,3 C 93 % 995,1 hPa 0,0 l/m 0 min 0 min 68 W/m 16,1 km/h (3 Bft) 97,83 %
04.12.2021 12:52 5,1 C 5,0 C 3,3 C 93 % 995,0 hPa 0,0 l/m 0 min 0 min 71 W/m 12,9 km/h (3 Bft) 100,00 %
04.12.2021 12:54 5,0 C 5,0 C 3,3 C 93 % 995,0 hPa 0,0 l/m 0 min 0 min 84 W/m 16,1 km/h (3 Bft) 95,24 %
04.12.2021 12:56 5,0 C 5,0 C 3,3 C 96 % 995,0 hPa 0,0 l/m 0 min 0 min 81 W/m 16,1 km/h (3 Bft) 93,18 %
04.12.2021 12:58 5,8 C 5,0 C 3,3 C 94 % 994,9 hPa 0,0 l/m 0 min 0 min 73 W/m 12,9 km/h (3 Bft) 100,00 %
04.12.2021 13:00 5,9 C 5,0 C 3,3 C 94 % 994,9 hPa 0,0 l/m 0 min 0 min 77 W/m 12,9 km/h (3 Bft) 95,74 %
04.12.2021 13:02 5,9 C 5,0 C 3,3 C 94 % 994,8 hPa 0,0 l/m 0 min 0 min 82 W/m 12,9 km/h (3 Bft) 97,83 %
04.12.2021 13:04 5,9 C 5,0 C 3,3 C 94 % 994,7 hPa 0,0 l/m 0 min 0 min 86 W/m 6,4 km/h (2 Bft) 97,87 %
04.12.2021 13:06 5,9 C 5,0 C 3,3 C 94 % 994,7 hPa 0,0 l/m 0 min 0 min 87 W/m 16,1 km/h (3 Bft) 95,74 %
04.12.2021 13:08 5,9 C 5,0 C 3,3 C 94 % 994,6 hPa 0,0 l/m 0 min 0 min 84 W/m 6,4 km/h (2 Bft) 97,87 %
04.12.2021 13:10 5,9 C 5,0 C 3,3 C 94 % 994,7 hPa 0,0 l/m 0 min 0 min 79 W/m 12,9 km/h (3 Bft) 95,74 %
04.12.2021 13:12 5,9 C 5,0 C 3,3 C 94 % 994,6 hPa 0,0 l/m 0 min 0 min 77 W/m 19,3 km/h (3 Bft) 97,87 %
04.12.2021 13:14 5,9 C 5,6 C 3,3 C 94 % 994,6 hPa 0,0 l/m 0 min 0 min 86 W/m 6,4 km/h (2 Bft) 95,65 %
04.12.2021 13:16 6,0 C 5,6 C 3,3 C 94 % 994,6 hPa 0,0 l/m 0 min 0 min 97 W/m 6,4 km/h (2 Bft) 95,74 %
04.12.2021 13:18 6,0 C 5,6 C 3,3 C 94 % 994,6 hPa 0,0 l/m 0 min 0 min 96 W/m 16,1 km/h (3 Bft) 93,62 %
04.12.2021 13:20 6,0 C 5,6 C 3,3 C 94 % 994,6 hPa 0,0 l/m 0 min 0 min 90 W/m 16,1 km/h (3 Bft) 95,74 %
04.12.2021 13:22 6,1 C 5,6 C 3,3 C 94 % 994,6 hPa 0,0 l/m 0 min 0 min 84 W/m 12,9 km/h (3 Bft) 95,74 %
04.12.2021 13:24 6,1 C 5,6 C 3,3 C 94 % 994,6 hPa 0,0 l/m 0 min 0 min 89 W/m 6,4 km/h (2 Bft) 95,74 %
04.12.2021 13:26 6,1 C 5,6 C 3,3 C 94 % 994,5 hPa 0,0 l/m 0 min 0 min 94 W/m 6,4 km/h (2 Bft) 95,65 %
04.12.2021 13:28 6,1 C 5,6 C 3,3 C 94 % 994,5 hPa 0,0 l/m 0 min 0 min 100 W/m 16,1 km/h (3 Bft) 91,49 %
04.12.2021 13:30 6,1 C 5,6 C 3,3 C 94 % 994,4 hPa 0,0 l/m 0 min 0 min 112 W/m 12,9 km/h (3 Bft) 95,74 %
04.12.2021 13:32 6,1 C 5,6 C 3,3 C 94 % 994,4 hPa 0,0 l/m 0 min 0 min 107 W/m 9,7 km/h (2 Bft) 95,74 %
04.12.2021 13:34 6,1 C 5,6 C 3,3 C 93 % 994,3 hPa 0,0 l/m 0 min 0 min 91 W/m 16,1 km/h (3 Bft) 95,74 %
04.12.2021 13:36 6,1 C 5,6 C 3,3 C 94 % 994,4 hPa 0,0 l/m 0 min 0 min 66 W/m 12,9 km/h (3 Bft) 97,87 %
04.12.2021 13:38 6,1 C 5,0 C 3,3 C 93 % 994,3 hPa 0,0 l/m 0 min 0 min 54 W/m 22,5 km/h (4 Bft) 97,83 %
04.12.2021 13:40 6,1 C 5,0 C 3,3 C 93 % 994,3 hPa 0,0 l/m 0 min 0 min 49 W/m 6,4 km/h (2 Bft) 97,87 %
04.12.2021 13:42 6,1 C 5,0 C 3,3 C 93 % 994,2 hPa 0,0 l/m 0 min 0 min 45 W/m 12,9 km/h (3 Bft) 93,62 %
04.12.2021 13:44 6,1 C 5,0 C 3,3 C 93 % 994,2 hPa 0,0 l/m 0 min 0 min 34 W/m 6,4 km/h (2 Bft) 97,87 %
04.12.2021 13:46 6,1 C 5,0 C 3,3 C 93 % 994,2 hPa 0,0 l/m 0 min 0 min 25 W/m 12,9 km/h (3 Bft) 97,87 %
04.12.2021 13:48 6,1 C 5,0 C 3,3 C 93 % 994,2 hPa 0,0 l/m 0 min 0 min 20 W/m 6,4 km/h (2 Bft) 97,87 %
04.12.2021 13:50 6,1 C 5,0 C 3,3 C 93 % 994,3 hPa 0,0 l/m 0 min 0 min 18 W/m 12,9 km/h (3 Bft) 97,83 %
04.12.2021 13:52 6,1 C 5,0 C 3,3 C 93 % 994,4 hPa 0,0 l/m 0 min 2 min 18 W/m 6,4 km/h (2 Bft) 97,87 %
04.12.2021 13:54 6,1 C 5,0 C 3,3 C 93 % 994,3 hPa 0,0 l/m 0 min 2 min 16 W/m 3,2 km/h (1 Bft) 97,87 %
04.12.2021 13:56 6,1 C 5,0 C 2,8 C 93 % 994,4 hPa 0,0 l/m 0 min 2 min 15 W/m 9,7 km/h (2 Bft) 97,87 %
04.12.2021 13:58 6,1 C 5,0 C 2,8 C 93 % 994,4 hPa 0,0 l/m 0 min 2 min 16 W/m 9,7 km/h (2 Bft) 97,87 %
04.12.2021 14:00 6,1 C 5,0 C 2,8 C 93 % 994,4 hPa 0,0 l/m 0 min 2 min 16 W/m 9,7 km/h (2 Bft) 97,87 %
04.12.2021 14:02 6,1 C 5,0 C 2,8 C 93 % 994,5 hPa 0,0 l/m 0 min 2 min 17 W/m 6,4 km/h (2 Bft) 100,00 %
04.12.2021 14:04 6,1 C 5,0 C 2,8 C 93 % 994,4 hPa 0,2 l/m 0 min 2 min 18 W/m 6,4 km/h (2 Bft) 100,00 %
04.12.2021 14:06 6,1 C 5,0 C 2,8 C 93 % 994,4 hPa 0,2 l/m 0 min 2 min 22 W/m 9,7 km/h (2 Bft) 100,00 %
04.12.2021 14:08 6,1 C 4,4 C 2,8 C 93 % 994,4 hPa 0,0 l/m 0 min 2 min 24 W/m 6,4 km/h (2 Bft) 97,87 %
04.12.2021 14:10 6,1 C 4,4 C 2,8 C 93 % 994,4 hPa 0,0 l/m 0 min 2 min 27 W/m 6,4 km/h (2 Bft) 100,00 %
04.12.2021 14:12 6,1 C 4,4 C 2,8 C 93 % 994,4 hPa 0,2 l/m 0 min 2 min 32 W/m 6,4 km/h (2 Bft) 100,00 %
04.12.2021 14:14 6,1 C 4,4 C 2,8 C 93 % 994,4 hPa 0,0 l/m 0 min 2 min 38 W/m 6,4 km/h (2 Bft) 100,00 %
04.12.2021 14:16 6,1 C 4,4 C 2,8 C 93 % 994,4 hPa 0,2 l/m 0 min 2 min 40 W/m 3,2 km/h (1 Bft) 100,00 %
04.12.2021 14:18 6,1 C 4,4 C 2,8 C 93 % 994,4 hPa 0,0 l/m 0 min 2 min 39 W/m 6,4 km/h (2 Bft) 100,00 %
04.12.2021 14:20 6,1 C 4,4 C 2,8 C 93 % 994,4 hPa 0,0 l/m 0 min 2 min 35 W/m 6,4 km/h (2 Bft) 97,87 %
04.12.2021 14:22 6,0 C 4,4 C 2,8 C 93 % 994,4 hPa 0,2 l/m 0 min 2 min 33 W/m 9,7 km/h (2 Bft) 100,00 %
04.12.2021 14:24 6,0 C 4,4 C 2,8 C 93 % 994,4 hPa 0,0 l/m 0 min 2 min 35 W/m 9,7 km/h (2 Bft) 100,00 %
04.12.2021 14:26 6,0 C 4,4 C 2,8 C 93 % 994,4 hPa 0,2 l/m 0 min 2 min 34 W/m 12,9 km/h (3 Bft) 97,83 %
04.12.2021 14:28 6,0 C 4,4 C 2,2 C 93 % 994,4 hPa 0,0 l/m 0 min 2 min 27 W/m 6,4 km/h (2 Bft) 100,00 %
04.12.2021 14:30 5,9 C 4,4 C 2,2 C 93 % 994,4 hPa 0,0 l/m 0 min 2 min 26 W/m 3,2 km/h (1 Bft) 100,00 %
04.12.2021 14:32 5,9 C 4,4 C 2,2 C 94 % 994,4 hPa 0,0 l/m 0 min 2 min 27 W/m 3,2 km/h (1 Bft) 100,00 %
04.12.2021 14:34 5,9 C 4,4 C 2,2 C 94 % 994,3 hPa 0,0 l/m 0 min 2 min 30 W/m 3,2 km/h (1 Bft) 97,87 %
04.12.2021 14:36 5,9 C 4,4 C 2,2 C 94 % 994,3 hPa 0,0 l/m 0 min 2 min 32 W/m 6,4 km/h (2 Bft) 100,00 %
04.12.2021 14:38 5,9 C 4,4 C 2,8 C 94 % 994,3 hPa 0,2 l/m 0 min 2 min 30 W/m 3,2 km/h (1 Bft) 97,83 %
04.12.2021 14:40 5,9 C 4,4 C 2,8 C 94 % 994,2 hPa 0,0 l/m 0 min 2 min 29 W/m 3,2 km/h (1 Bft) 100,00 %
04.12.2021 14:42 5,9 C 4,4 C 2,8 C 94 % 994,2 hPa 0,0 l/m 0 min 2 min 26 W/m 3,2 km/h (1 Bft) 100,00 %
04.12.2021 14:44 5,9 C 4,4 C 2,8 C 94 % 994,2 hPa 0,0 l/m 0 min 2 min 23 W/m 3,2 km/h (1 Bft) 100,00 %
04.12.2021 14:46 5,9 C 4,4 C 2,8 C 94 % 994,2 hPa 0,2 l/m 0 min 2 min 22 W/m 6,4 km/h (2 Bft) 93,62 %
04.12.2021 14:48 5,9 C 4,4 C 2,8 C 94 % 994,2 hPa 0,0 l/m 0 min 2 min 19 W/m 6,4 km/h (2 Bft) 97,83 %
04.12.2021 14:50 5,9 C 4,4 C 2,8 C 94 % 994,2 hPa 0,0 l/m 0 min 2 min 16 W/m 6,4 km/h (2 Bft) 95,74 %
04.12.2021 14:52 5,9 C 4,4 C 2,8 C 94 % 994,4 hPa 0,0 l/m 0 min 2 min 15 W/m 3,2 km/h (1 Bft) 97,87 %
04.12.2021 14:54 5,8 C 4,4 C 2,8 C 94 % 994,4 hPa 0,0 l/m 0 min 2 min 15 W/m 6,4 km/h (2 Bft) 97,87 %
04.12.2021 14:56 5,8 C 4,4 C 2,8 C 94 % 994,4 hPa 0,0 l/m 0 min 2 min 16 W/m 3,2 km/h (1 Bft) 93,62 %
04.12.2021 14:58 5,8 C 4,4 C 2,2 C 94 % 994,4 hPa 0,0 l/m 0 min 2 min 15 W/m 3,2 km/h (1 Bft) 97,87 %
04.12.2021 15:00 5,8 C 4,4 C 2,8 C 94 % 994,4 hPa 0,0 l/m 0 min 2 min 14 W/m 3,2 km/h (1 Bft) 95,65 %
04.12.2021 15:02 5,8 C 4,4 C 2,8 C 94 % 994,4 hPa 0,2 l/m 0 min 2 min 14 W/m 0,0 km/h (0 Bft) 95,74 %
04.12.2021 15:04 5,8 C 4,4 C 2,8 C 94 % 994,5 hPa 0,0 l/m 0 min 2 min 16 W/m 3,2 km/h (1 Bft) 95,74 %
04.12.2021 15:06 5,8 C 4,4 C 2,8 C 95 % 994,4 hPa 0,2 l/m 0 min 2 min 16 W/m 6,4 km/h (2 Bft) 93,62 %
04.12.2021 15:08 5,8 C 4,4 C 2,8 C 95 % 994,5 hPa 0,0 l/m 0 min 2 min 16 W/m 6,4 km/h (2 Bft) 93,62 %
04.12.2021 15:10 5,8 C 4,4 C 2,8 C 95 % 994,5 hPa 0,0 l/m 0 min 2 min 14 W/m 9,7 km/h (2 Bft) 95,74 %
04.12.2021 15:12 5,7 C 4,4 C 2,8 C 95 % 994,5 hPa 0,0 l/m 0 min 2 min 12 W/m 3,2 km/h (1 Bft) 95,65 %
04.12.2021 15:14 5,7 C 4,4 C 2,8 C 95 % 994,4 hPa 0,2 l/m 0 min 2 min 12 W/m 3,2 km/h (1 Bft) 95,74 %
04.12.2021 15:16 5,7 C 4,4 C 2,8 C 95 % 994,5 hPa 0,2 l/m 0 min 2 min 11 W/m 3,2 km/h (1 Bft) 95,74 %
04.12.2021 15:18 5,7 C 4,4 C 2,8 C 95 % 994,5 hPa 0,0 l/m 0 min 2 min 11 W/m 0,0 km/h (0 Bft) 95,74 %
04.12.2021 15:20 5,7 C 4,4 C 2,8 C 95 % 994,5 hPa 0,0 l/m 0 min 2 min 10 W/m 0,0 km/h (0 Bft) 97,87 %
04.12.2021 15:22 5,7 C 3,9 C 2,8 C 95 % 994,5 hPa 0,0 l/m 0 min 2 min 9 W/m 3,2 km/h (1 Bft) 93,62 %
04.12.2021 15:24 5,7 C 4,4 C 2,8 C 95 % 994,6 hPa 0,0 l/m 0 min 2 min 8 W/m 3,2 km/h (1 Bft) 93,48 %
04.12.2021 15:26 5,7 C 4,4 C 2,8 C 95 % 994,6 hPa 0,2 l/m 0 min 2 min 7 W/m 0,0 km/h (0 Bft) 93,62 %
04.12.2021 15:28 5,7 C 3,9 C 2,8 C 95 % 994,6 hPa 0,0 l/m 0 min 2 min 7 W/m 3,2 km/h (1 Bft) 95,74 %
04.12.2021 15:30 5,7 C 3,9 C 2,8 C 95 % 994,6 hPa 0,2 l/m 0 min 2 min 6 W/m 3,2 km/h (1 Bft) 91,49 %
04.12.2021 15:32 5,7 C 3,9 C 2,8 C 95 % 994,7 hPa 0,0 l/m 0 min 2 min 5 W/m 3,2 km/h (1 Bft) 97,87 %
04.12.2021 15:34 5,7 C 3,9 C 2,8 C 95 % 994,7 hPa 0,0 l/m 0 min 2 min 5 W/m 0,0 km/h (0 Bft) 97,87 %
04.12.2021 15:36 5,7 C 3,9 C 2,8 C 95 % 994,8 hPa 0,2 l/m 0 min 2 min 5 W/m 6,4 km/h (2 Bft) 95,65 %
04.12.2021 15:38 5,7 C 3,9 C 2,8 C 95 % 994,7 hPa 0,0 l/m 0 min 2 min 3 W/m 3,2 km/h (1 Bft) 97,87 %
04.12.2021 15:40 5,7 C 3,9 C 2,8 C 95 % 994,7 hPa 0,0 l/m 0 min 2 min 2 W/m 3,2 km/h (1 Bft) 97,87 %
04.12.2021 15:42 5,7 C 3,9 C 2,8 C 96 % 994,8 hPa 0,2 l/m 0 min 2 min 0 W/m 3,2 km/h (1 Bft) 100,00 %
04.12.2021 15:44 5,6 C 3,9 C 2,8 C 96 % 994,8 hPa 0,0 l/m 0 min 2 min 0 W/m 3,2 km/h (1 Bft) 97,87 %
04.12.2021 15:46 5,6 C 3,9 C 2,8 C 96 % 994,8 hPa 0,0 l/m 0 min 2 min 0 W/m 3,2 km/h (1 Bft) 97,87 %
04.12.2021 15:48 5,6 C 3,9 C 2,8 C 96 % 994,8 hPa 0,2 l/m 0 min 2 min 0 W/m 0,0 km/h (0 Bft) 95,65 %
04.12.2021 15:50 5,6 C 3,9 C 2,8 C 96 % 994,7 hPa 0,0 l/m 0 min 2 min 0 W/m 6,4 km/h (2 Bft) 97,87 %
04.12.2021 15:52 5,6 C 3,9 C 2,8 C 96 % 994,7 hPa 0,0 l/m 0 min 2 min 0 W/m 6,4 km/h (2 Bft) 97,87 %
04.12.2021 15:54 5,6 C 3,9 C 2,8 C 96 % 994,7 hPa 0,2 l/m 0 min 2 min 0 W/m 6,4 km/h (2 Bft) 93,62 %
04.12.2021 15:56 5,6 C 3,9 C 2,8 C 96 % 994,8 hPa 0,0 l/m 0 min 2 min 0 W/m 3,2 km/h (1 Bft) 95,74 %
04.12.2021 15:58 5,6 C 3,9 C 2,8 C 96 % 994,8 hPa 0,0 l/m 0 min 2 min 0 W/m 9,7 km/h (2 Bft) 95,74 %
04.12.2021 16:00 5,6 C 3,9 C 2,8 C 96 % 994,9 hPa 0,2 l/m 0 min 2 min 0 W/m 0,0 km/h (0 Bft) 97,83 %
04.12.2021 16:02 5,6 C 3,9 C 2,8 C 96 % 994,8 hPa 0,0 l/m 0 min 2 min 0 W/m 9,7 km/h (2 Bft) 97,87 %
04.12.2021 16:04 5,6 C 3,9 C 2,8 C 96 % 994,9 hPa 0,2 l/m 0 min 2 min 0 W/m 6,4 km/h (2 Bft) 97,87 %
04.12.2021 16:06 5,6 C 3,9 C 2,8 C 96 % 994,9 hPa 0,0 l/m 0 min 2 min 0 W/m 6,4 km/h (2 Bft) 97,87 %
04.12.2021 16:08 5,6 C 3,9 C 2,8 C 96 % 995,0 hPa 0,0 l/m 0 min 2 min 0 W/m 6,4 km/h (2 Bft) 97,87 %
04.12.2021 16:10 5,6 C 3,9 C 2,8 C 96 % 995,0 hPa 0,0 l/m 0 min 2 min 0 W/m 3,2 km/h (1 Bft) 97,83 %
04.12.2021 16:12 5,6 C 3,9 C 2,8 C 96 % 994,9 hPa 0,2 l/m 0 min 2 min 0 W/m 6,4 km/h (2 Bft) 97,87 %
04.12.2021 16:14 5,6 C 3,9 C 2,8 C 96 % 995,0 hPa 0,0 l/m 0 min 2 min 0 W/m 6,4 km/h (2 Bft) 97,87 %
04.12.2021 16:16 5,6 C 3,9 C 2,8 C 96 % 995,1 hPa 0,2 l/m 0 min 2 min 0 W/m 9,7 km/h (2 Bft) 97,87 %
04.12.2021 16:18 5,6 C 3,9 C 2,8 C 96 % 995,0 hPa 0,0 l/m 0 min 2 min 0 W/m 3,2 km/h (1 Bft) 97,87 %
04.12.2021 16:20 5,6 C 3,9 C 2,8 C 96 % 995,0 hPa 0,0 l/m 0 min 2 min 0 W/m 12,9 km/h (3 Bft) 97,87 %
04.12.2021 16:22 5,6 C 3,9 C 2,8 C 96 % 995,1 hPa 0,0 l/m 0 min 2 min 0 W/m 9,7 km/h (2 Bft) 97,83 %
04.12.2021 16:24 5,6 C 3,9 C 2,8 C 96 % 995,1 hPa 0,0 l/m 0 min 2 min 0 W/m 3,2 km/h (1 Bft) 97,87 %
04.12.2021 16:26 5,6 C 3,9 C 2,8 C 96 % 995,1 hPa 0,2 l/m 0 min 2 min 0 W/m 6,4 km/h (2 Bft) 97,87 %
04.12.2021 16:28 5,6 C 3,9 C 2,8 C 96 % 995,1 hPa 0,0 l/m 0 min 2 min 0 W/m 9,7 km/h (2 Bft) 97,87 %
04.12.2021 16:30 5,5 C 3,9 C 2,8 C 96 % 995,2 hPa 0,0 l/m 0 min 2 min 0 W/m 12,9 km/h (3 Bft) 100,00 %
04.12.2021 16:32 5,5 C 3,9 C 2,8 C 97 % 995,2 hPa 0,0 l/m 0 min 2 min 0 W/m 12,9 km/h (3 Bft) 100,00 %
04.12.2021 16:34 5,5 C 3,9 C 2,8 C 97 % 995,3 hPa 0,2 l/m 0 min 2 min 0 W/m 9,7 km/h (2 Bft) 100,00 %
04.12.2021 16:36 5,5 C 3,9 C 2,8 C 97 % 995,2 hPa 0,0 l/m 0 min 2 min 0 W/m 12,9 km/h (3 Bft) 97,87 %
04.12.2021 16:38 5,5 C 3,9 C 2,8 C 97 % 995,3 hPa 0,0 l/m 0 min 2 min 0 W/m 12,9 km/h (3 Bft) 100,00 %
04.12.2021 16:40 5,5 C 3,9 C 2,8 C 97 % 995,3 hPa 0,0 l/m 0 min 2 min 0 W/m 16,1 km/h (3 Bft) 100,00 %
04.12.2021 16:42 5,5 C 3,9 C 2,8 C 97 % 995,4 hPa 0,0 l/m 0 min 2 min 0 W/m 16,1 km/h (3 Bft) 100,00 %
04.12.2021 16:44 5,5 C 3,9 C 2,8 C 97 % 995,4 hPa 0,0 l/m 0 min 2 min 0 W/m 12,9 km/h (3 Bft) 100,00 %
04.12.2021 16:46 5,5 C 3,9 C 2,8 C 97 % 995,4 hPa 0,2 l/m 0 min 2 min 0 W/m 6,4 km/h (2 Bft) 100,00 %
04.12.2021 16:48 5,5 C 3,9 C 2,8 C 97 % 995,3 hPa 0,0 l/m 0 min 2 min 0 W/m 6,4 km/h (2 Bft) 100,00 %
04.12.2021 16:50 5,5 C 3,9 C 2,8 C 97 % 995,4 hPa 0,0 l/m 0 min 2 min 0 W/m 6,4 km/h (2 Bft) 100,00 %
04.12.2021 16:52 5,5 C 3,9 C 2,8 C 97 % 995,4 hPa 0,0 l/m 0 min 2 min 0 W/m 6,4 km/h (2 Bft) 100,00 %
04.12.2021 16:54 5,5 C 3,9 C 2,8 C 97 % 995,4 hPa 0,2 l/m 0 min 2 min 0 W/m 6,4 km/h (2 Bft) 95,74 %
04.12.2021 16:56 5,5 C 3,9 C 2,8 C 97 % 995,4 hPa 0,0 l/m 0 min 2 min 0 W/m 12,9 km/h (3 Bft) 95,74 %
04.12.2021 16:58 5,5 C 3,9 C 2,8 C 97 % 995,5 hPa 0,0 l/m 0 min 0 min 0 W/m 6,4 km/h (2 Bft) 97,87 %
04.12.2021 17:00 5,5 C 3,9 C 2,8 C 97 % 995,5 hPa 0,0 l/m 0 min 0 min 0 W/m 6,4 km/h (2 Bft) 95,65 %
04.12.2021 17:02 5,5 C 3,9 C 2,8 C 97 % 995,5 hPa 0,0 l/m 0 min 2 min 0 W/m 3,2 km/h (1 Bft) 97,87 %
04.12.2021 17:04 5,5 C 3,9 C 2,8 C 97 % 995,6 hPa 0,0 l/m 0 min 0 min 0 W/m 6,4 km/h (2 Bft) 97,87 %
04.12.2021 17:06 5,5 C 3,9 C 2,8 C 97 % 995,6 hPa 0,0 l/m 0 min 0 min 0 W/m 6,4 km/h (2 Bft) 97,87 %
04.12.2021 17:08 5,6 C 3,9 C 2,8 C 97 % 995,6 hPa 0,0 l/m 0 min 0 min 0 W/m 9,7 km/h (2 Bft) 97,87 %
04.12.2021 17:10 5,6 C 3,9 C 2,8 C 97 % 995,6 hPa 0,0 l/m 0 min 0 min 0 W/m 9,7 km/h (2 Bft) 97,83 %
04.12.2021 17:12 5,6 C 3,9 C 2,8 C 97 % 995,6 hPa 0,0 l/m 0 min 2 min 0 W/m 6,4 km/h (2 Bft) 95,74 %
04.12.2021 17:14 5,6 C 3,9 C 2,8 C 97 % 995,7 hPa 0,0 l/m 0 min 0 min 0 W/m 6,4 km/h (2 Bft) 97,87 %
04.12.2021 17:16 5,6 C 3,9 C 2,8 C 97 % 995,7 hPa 0,0 l/m 0 min 0 min 0 W/m 6,4 km/h (2 Bft) 95,74 %
04.12.2021 17:18 5,6 C 3,9 C 2,8 C 97 % 995,8 hPa 0,0 l/m 0 min 0 min 0 W/m 9,7 km/h (2 Bft) 97,87 %
04.12.2021 17:20 5,6 C 3,9 C 2,8 C 97 % 995,8 hPa 0,0 l/m 0 min 0 min 0 W/m 3,2 km/h (1 Bft) 95,74 %
04.12.2021 17:22 5,6 C 4,4 C 2,8 C 97 % 995,8 hPa 0,0 l/m 0 min 0 min 0 W/m 16,1 km/h (3 Bft) 97,83 %
04.12.2021 17:24 5,6 C 4,4 C 2,8 C 97 % 995,8 hPa 0,0 l/m 0 min 0 min 0 W/m 9,7 km/h (2 Bft) 89,36 %
04.12.2021 17:26 5,7 C 4,4 C 2,8 C 97 % 995,8 hPa 0,0 l/m 0 min 0 min 0 W/m 12,9 km/h (3 Bft) 66,67 %
04.12.2021 17:28 5,7 C 4,4 C 2,8 C 97 % 995,8 hPa 0,0 l/m 0 min 0 min 0 W/m 6,4 km/h (2 Bft) 100,00 %
04.12.2021 17:30 5,7 C 4,4 C 2,8 C 97 % 995,8 hPa 0,0 l/m 0 min 0 min 0 W/m 6,4 km/h (2 Bft) 100,00 %
04.12.2021 17:32 5,7 C 4,4 C 2,8 C 97 % 995,9 hPa 0,0 l/m 0 min 0 min 0 W/m 9,7 km/h (2 Bft) 100,00 %
04.12.2021 17:34 5,7 C 4,4 C 2,8 C 97 % 995,9 hPa 0,0 l/m 0 min 0 min 0 W/m 16,1 km/h (3 Bft) 97,87 %
04.12.2021 17:36 5,7 C 4,4 C 2,8 C 97 % 995,9 hPa 0,0 l/m 0 min 0 min 0 W/m 12,9 km/h (3 Bft) 100,00 %
04.12.2021 17:38 5,7 C 4,4 C 2,8 C 97 % 996,0 hPa 0,0 l/m 0 min 0 min 0 W/m 12,9 km/h (3 Bft) 100,00 %
04.12.2021 17:40 5,8 C 4,4 C 2,8 C 98 % 996,0 hPa 0,0 l/m 0 min 0 min 0 W/m 19,3 km/h (3 Bft) 100,00 %
04.12.2021 17:42 5,8 C 4,4 C 2,8 C 98 % 996,0 hPa 0,0 l/m 0 min 0 min 0 W/m 16,1 km/h (3 Bft) 100,00 %
04.12.2021 17:44 5,8 C 4,4 C 2,8 C 98 % 995,9 hPa 0,0 l/m 0 min 0 min 0 W/m 19,3 km/h (3 Bft) 100,00 %
04.12.2021 17:46 5,8 C 4,4 C 2,8 C 98 % 996,0 hPa 0,0 l/m 0 min 0 min 0 W/m 12,9 km/h (3 Bft) 97,87 %
04.12.2021 17:48 5,8 C 4,4 C 2,8 C 98 % 996,1 hPa 0,0 l/m 0 min 0 min 0 W/m 12,9 km/h (3 Bft) 97,87 %
04.12.2021 17:50 5,8 C 4,4 C 2,8 C 98 % 996,2 hPa 0,2 l/m 0 min 0 min 0 W/m 16,1 km/h (3 Bft) 97,83 %
04.12.2021 17:52 5,8 C 4,4 C 2,8 C 98 % 996,2 hPa 0,0 l/m 0 min 0 min 0 W/m 22,5 km/h (4 Bft) 95,74 %
04.12.2021 17:54 5,8 C 4,4 C 2,8 C 98 % 996,1 hPa 0,0 l/m 0 min 0 min 0 W/m 12,9 km/h (3 Bft) 97,87 %
04.12.2021 17:56 5,8 C 4,4 C 2,8 C 98 % 996,2 hPa 0,0 l/m 0 min 0 min 0 W/m 12,9 km/h (3 Bft) 97,87 %
04.12.2021 17:58 5,8 C 4,4 C 2,8 C 98 % 996,2 hPa 0,0 l/m 0 min 0 min 0 W/m 12,9 km/h (3 Bft) 97,87 %
04.12.2021 18:00 5,8 C 4,4 C 2,8 C 98 % 996,2 hPa 0,0 l/m 0 min 0 min 0 W/m 19,3 km/h (3 Bft) 97,83 %
04.12.2021 18:02 5,8 C 4,4 C 2,8 C 98 % 996,3 hPa 0,0 l/m 0 min 0 min 0 W/m 16,1 km/h (3 Bft) 97,87 %
04.12.2021 18:04 5,8 C 4,4 C 2,8 C 98 % 996,3 hPa 0,0 l/m 0 min 0 min 0 W/m 16,1 km/h (3 Bft) 95,74 %
04.12.2021 18:07 5,8 C 4,4 C 2,8 C 98 % 996,4 hPa 0,0 l/m 0 min 0 min 0 W/m 16,1 km/h (3 Bft) 97,14 %
04.12.2021 18:08 5,8 C 4,4 C 2,8 C 98 % 996,4 hPa 0,0 l/m 0 min 0 min 0 W/m 16,1 km/h (3 Bft) 95,83 %
04.12.2021 18:10 5,8 C 4,4 C 2,8 C 98 % 996,4 hPa 0,0 l/m 0 min 0 min 0 W/m 19,3 km/h (3 Bft) 97,87 %
04.12.2021 18:12 5,8 C 4,4 C 2,8 C 98 % 996,5 hPa 0,0 l/m 0 min 0 min 0 W/m 16,1 km/h (3 Bft) 97,83 %
04.12.2021 18:14 5,8 C 4,4 C 3,3 C 98 % 996,5 hPa 0,0 l/m 0 min 2 min 0 W/m 19,3 km/h (3 Bft) 95,74 %
04.12.2021 18:16 5,8 C 4,4 C 3,3 C 98 % 996,5 hPa 0,0 l/m 0 min 0 min 0 W/m 16,1 km/h (3 Bft) 97,87 %
04.12.2021 18:18 5,8 C 4,4 C 3,3 C 98 % 996,5 hPa 0,0 l/m 0 min 2 min 0 W/m 12,9 km/h (3 Bft) 97,87 %
04.12.2021 18:20 5,9 C 4,4 C 3,3 C 98 % 996,5 hPa 0,0 l/m 0 min 2 min 0 W/m 16,1 km/h (3 Bft) 91,49 %
04.12.2021 18:22 5,8 C 4,4 C 3,3 C 98 % 996,4 hPa 0,0 l/m 0 min 2 min 0 W/m 16,1 km/h (3 Bft) 91,49 %
04.12.2021 18:24 5,8 C 4,4 C 3,3 C 98 % 996,5 hPa 0,0 l/m 0 min 2 min 0 W/m 12,9 km/h (3 Bft) 95,65 %
04.12.2021 18:26 5,9 C 4,4 C 3,3 C 98 % 996,6 hPa 0,0 l/m 0 min 0 min 0 W/m 6,4 km/h (2 Bft) 97,87 %
04.12.2021 18:28 5,9 C 4,4 C 3,3 C 98 % 996,6 hPa 0,0 l/m 0 min 0 min 0 W/m 9,7 km/h (2 Bft) 97,87 %
04.12.2021 18:30 5,9 C 4,4 C 3,3 C 98 % 996,6 hPa 0,0 l/m 0 min 0 min 0 W/m 16,1 km/h (3 Bft) 95,74 %
04.12.2021 18:32 5,9 C 4,4 C 3,3 C 98 % 996,6 hPa 0,0 l/m 0 min 0 min 0 W/m 16,1 km/h (3 Bft) 95,74 %
04.12.2021 18:34 5,9 C 4,4 C 3,3 C 98 % 996,6 hPa 0,0 l/m 0 min 0 min 0 W/m 16,1 km/h (3 Bft) 95,74 %
04.12.2021 18:36 5,9 C 4,4 C 3,3 C 98 % 996,7 hPa 0,0 l/m 0 min 0 min 0 W/m 12,9 km/h (3 Bft) 95,65 %
04.12.2021 18:38 5,9 C 4,4 C 3,3 C 98 % 996,8 hPa 0,0 l/m 0 min 0 min 0 W/m 22,5 km/h (4 Bft) 93,62 %
04.12.2021 18:40 5,9 C 4,4 C 3,3 C 98 % 996,8 hPa 0,0 l/m 0 min 0 min 0 W/m 22,5 km/h (4 Bft) 93,62 %
04.12.2021 18:42 5,9 C 4,4 C 3,3 C 98 % 996,9 hPa 0,0 l/m 0 min 0 min 0 W/m 16,1 km/h (3 Bft) 95,74 %
04.12.2021 18:44 5,9 C 4,4 C 3,3 C 98 % 996,9 hPa 0,0 l/m 0 min 0 min 0 W/m 16,1 km/h (3 Bft) 97,87 %
04.12.2021 18:46 5,9 C 4,4 C 3,3 C 98 % 996,9 hPa 0,0 l/m 0 min 0 min 0 W/m 9,7 km/h (2 Bft) 97,87 %
04.12.2021 18:48 5,9 C 4,4 C 3,3 C 98 % 997,0 hPa 0,0 l/m 0 min 0 min 0 W/m 16,1 km/h (3 Bft) 95,65 %
04.12.2021 18:50 5,9 C 4,4 C 3,3 C 98 % 997,0 hPa 0,0 l/m 0 min 0 min 0 W/m 19,3 km/h (3 Bft) 93,62 %
04.12.2021 18:52 5,9 C 4,4 C 3,3 C 98 % 997,1 hPa 0,0 l/m 0 min 0 min 0 W/m 12,9 km/h (3 Bft) 95,74 %
04.12.2021 18:54 5,9 C 4,4 C 3,3 C 98 % 997,1 hPa 0,0 l/m 0 min 0 min 0 W/m 16,1 km/h (3 Bft) 93,62 %
04.12.2021 18:56 5,9 C 4,4 C 2,8 C 98 % 997,1 hPa 0,0 l/m 0 min 0 min 0 W/m 12,9 km/h (3 Bft) 93,62 %
04.12.2021 18:58 5,8 C 4,4 C 2,8 C 98 % 997,1 hPa 0,0 l/m 0 min 0 min 0 W/m 12,9 km/h (3 Bft) 95,74 %
04.12.2021 19:00 5,8 C 4,4 C 2,8 C 98 % 997,1 hPa 0,0 l/m 0 min 0 min 0 W/m 19,3 km/h (3 Bft) 95,65 %
04.12.2021 19:02 5,8 C 4,4 C 2,8 C 98 % 997,2 hPa 0,0 l/m 0 min 0 min 0 W/m 22,5 km/h (4 Bft) 95,74 %
04.12.2021 19:04 5,8 C 4,4 C 2,8 C 98 % 997,2 hPa 0,0 l/m 0 min 0 min 0 W/m 12,9 km/h (3 Bft) 95,74 %
04.12.2021 19:06 5,7 C 4,4 C 2,8 C 97 % 997,2 hPa 0,0 l/m 0 min 0 min 0 W/m 12,9 km/h (3 Bft) 97,87 %
04.12.2021 19:08 5,7 C 4,4 C 2,8 C 97 % 997,2 hPa 0,0 l/m 0 min 0 min 0 W/m 12,9 km/h (3 Bft) 97,87 %
04.12.2021 19:10 5,7 C 4,4 C 2,8 C 97 % 997,2 hPa 0,0 l/m 0 min 0 min 0 W/m 16,1 km/h (3 Bft) 100,00 %
04.12.2021 19:12 5,6 C 4,4 C 2,8 C 97 % 997,2 hPa 0,0 l/m 0 min 0 min 0 W/m 12,9 km/h (3 Bft) 91,30 %
04.12.2021 19:14 5,6 C 4,4 C 2,8 C 97 % 997,3 hPa 0,0 l/m 0 min 0 min 0 W/m 16,1 km/h (3 Bft) 97,87 %
04.12.2021 19:16 5,6 C 4,4 C 2,8 C 97 % 997,2 hPa 0,0 l/m 0 min 0 min 0 W/m 12,9 km/h (3 Bft) 97,87 %
04.12.2021 19:18 5,6 C 3,9 C 2,8 C 97 % 997,3 hPa 0,0 l/m 0 min 0 min 0 W/m 19,3 km/h (3 Bft) 100,00 %
04.12.2021 19:20 5,5 C 3,9 C 2,8 C 97 % 997,3 hPa 0,0 l/m 0 min 0 min 0 W/m 16,1 km/h (3 Bft) 100,00 %
04.12.2021 19:22 5,5 C 3,9 C 2,8 C 97 % 997,3 hPa 0,0 l/m 0 min 0 min 0 W/m 16,1 km/h (3 Bft) 100,00 %
04.12.2021 19:24 5,5 C 3,9 C 2,8 C 97 % 997,3 hPa 0,0 l/m 0 min 0 min 0 W/m 19,3 km/h (3 Bft) 100,00 %
04.12.2021 19:26 5,4 C 3,9 C 2,8 C 97 % 997,3 hPa 0,0 l/m 0 min 0 min 0 W/m 12,9 km/h (3 Bft) 100,00 %
04.12.2021 19:28 5,4 C 3,9 C 2,8 C 97 % 997,4 hPa 0,0 l/m 0 min 0 min 0 W/m 12,9 km/h (3 Bft) 100,00 %
04.12.2021 19:30 5,4 C 3,9 C 2,8 C 97 % 997,4 hPa 0,0 l/m 0 min 0 min 0 W/m 16,1 km/h (3 Bft) 100,00 %
04.12.2021 19:32 5,4 C 3,9 C 2,8 C 97 % 997,5 hPa 0,0 l/m 0 min 0 min 0 W/m 6,4 km/h (2 Bft) 100,00 %
04.12.2021 19:34 5,4 C 3,9 C 2,8 C 97 % 997,5 hPa 0,0 l/m 0 min 0 min 0 W/m 12,9 km/h (3 Bft) 97,87 %
04.12.2021 19:36 5,3 C 3,9 C 2,8 C 97 % 997,5 hPa 0,0 l/m 0 min 0 min 0 W/m 12,9 km/h (3 Bft) 100,00 %
04.12.2021 19:38 5,3 C 3,9 C 2,8 C 97 % 997,5 hPa 0,0 l/m 0 min 0 min 0 W/m 6,4 km/h (2 Bft) 100,00 %
04.12.2021 19:40 5,3 C 3,9 C 2,8 C 97 % 997,6 hPa 0,0 l/m 0 min 0 min 0 W/m 12,9 km/h (3 Bft) 100,00 %
04.12.2021 19:42 5,3 C 3,9 C 2,2 C 97 % 997,6 hPa 0,0 l/m 0 min 0 min 0 W/m 19,3 km/h (3 Bft) 100,00 %
04.12.2021 19:44 5,3 C 3,9 C 2,8 C 97 % 997,6 hPa 0,0 l/m 0 min 0 min 0 W/m 16,1 km/h (3 Bft) 100,00 %
04.12.2021 19:46 5,3 C 3,9 C 2,8 C 97 % 997,6 hPa 0,0 l/m 0 min 0 min 0 W/m 6,4 km/h (2 Bft) 100,00 %
04.12.2021 19:48 5,3 C 3,9 C 2,8 C 97 % 997,6 hPa 0,0 l/m 0 min 0 min 0 W/m 16,1 km/h (3 Bft) 100,00 %
04.12.2021 19:50 5,3 C 3,9 C 2,8 C 97 % 997,6 hPa 0,0 l/m 0 min 0 min 0 W/m 16,1 km/h (3 Bft) 100,00 %
04.12.2021 19:52 5,3 C 3,9 C 2,2 C 97 % 997,6 hPa 0,0 l/m 0 min 0 min 0 W/m 12,9 km/h (3 Bft) 100,00 %
04.12.2021 19:54 5,2 C 3,9 C 2,2 C 97 % 997,7 hPa 0,0 l/m 0 min 0 min 0 W/m 12,9 km/h (3 Bft) 100,00 %
04.12.2021 19:56 5,2 C 3,9 C 2,2 C 97 % 997,7 hPa 0,0 l/m 0 min 0 min 0 W/m 6,4 km/h (2 Bft) 100,00 %
04.12.2021 19:58 5,2 C 3,9 C 2,2 C 97 % 997,8 hPa 0,0 l/m 0 min 0 min 0 W/m 12,9 km/h (3 Bft) 100,00 %
04.12.2021 20:00 5,2 C 3,9 C 2,2 C 97 % 997,8 hPa 0,0 l/m 0 min 0 min 0 W/m 12,9 km/h (3 Bft) 97,83 %
04.12.2021 20:02 5,2 C 3,9 C 2,2 C 97 % 997,8 hPa 0,0 l/m 0 min 0 min 0 W/m 16,1 km/h (3 Bft) 97,87 %
04.12.2021 20:04 5,2 C 3,9 C 2,2 C 97 % 997,7 hPa 0,0 l/m 0 min 0 min 0 W/m 6,4 km/h (2 Bft) 100,00 %
04.12.2021 20:06 5,2 C 3,9 C 2,2 C 97 % 997,8 hPa 0,0 l/m 0 min 0 min 0 W/m 9,7 km/h (2 Bft) 100,00 %
04.12.2021 20:08 5,2 C 3,9 C 2,2 C 97 % 997,8 hPa 0,0 l/m 0 min 0 min 0 W/m 6,4 km/h (2 Bft) 100,00 %
04.12.2021 20:10 5,2 C 3,9 C 2,2 C 97 % 997,8 hPa 0,0 l/m 0 min 0 min 0 W/m 12,9 km/h (3 Bft) 97,87 %
04.12.2021 20:12 5,2 C 3,9 C 2,2 C 97 % 997,9 hPa 0,0 l/m 0 min 0 min 0 W/m 9,7 km/h (2 Bft) 100,00 %
04.12.2021 20:14 5,2 C 3,9 C 2,2 C 97 % 997,9 hPa 0,0 l/m 0 min 0 min 0 W/m 12,9 km/h (3 Bft) 100,00 %
04.12.2021 20:16 5,2 C 3,9 C 2,2 C 97 % 997,9 hPa 0,0 l/m 0 min 0 min 0 W/m 12,9 km/h (3 Bft) 100,00 %
04.12.2021 20:18 5,2 C 3,9 C 2,2 C 97 % 998,0 hPa 0,0 l/m 0 min 0 min 0 W/m 12,9 km/h (3 Bft) 100,00 %
04.12.2021 20:20 5,1 C 3,9 C 2,2 C 97 % 998,0 hPa 0,0 l/m 0 min 0 min 0 W/m 16,1 km/h (3 Bft) 100,00 %
04.12.2021 20:22 5,1 C 3,9 C 2,2 C 97 % 998,0 hPa 0,0 l/m 0 min 0 min 0 W/m 16,1 km/h (3 Bft) 100,00 %
04.12.2021 20:24 5,1 C 3,9 C 2,2 C 97 % 998,0 hPa 0,0 l/m 0 min 0 min 0 W/m 12,9 km/h (3 Bft) 100,00 %
04.12.2021 20:26 5,1 C 3,9 C 2,2 C 97 % 998,1 hPa 0,0 l/m 0 min 0 min 0 W/m 9,7 km/h (2 Bft) 100,00 %
04.12.2021 20:28 5,1 C 3,9 C 2,2 C 97 % 998,1 hPa 0,0 l/m 0 min 0 min 0 W/m 9,7 km/h (2 Bft) 97,87 %
04.12.2021 20:30 5,1 C 3,9 C 2,2 C 97 % 998,0 hPa 0,0 l/m 0 min 0 min 0 W/m 12,9 km/h (3 Bft) 100,00 %
04.12.2021 20:32 5,0 C 3,3 C 2,2 C 97 % 998,1 hPa 0,0 l/m 0 min 0 min 0 W/m 9,7 km/h (2 Bft) 95,74 %
04.12.2021 20:34 5,0 C 3,3 C 2,2 C 97 % 998,1 hPa 0,0 l/m 0 min 0 min 0 W/m 9,7 km/h (2 Bft) 100,00 %
04.12.2021 20:36 5,0 C 3,3 C 2,2 C 97 % 998,1 hPa 0,0 l/m 0 min 0 min 0 W/m 12,9 km/h (3 Bft) 100,00 %
04.12.2021 20:38 5,0 C 3,3 C 2,2 C 97 % 998,2 hPa 0,0 l/m 0 min 0 min 0 W/m 12,9 km/h (3 Bft) 100,00 %
04.12.2021 20:40 4,9 C 3,3 C 2,2 C 97 % 998,2 hPa 0,0 l/m 0 min 0 min 0 W/m 12,9 km/h (3 Bft) 97,87 %
04.12.2021 20:42 4,9 C 3,3 C 2,2 C 97 % 998,2 hPa 0,0 l/m 0 min 0 min 0 W/m 9,7 km/h (2 Bft) 95,74 %
04.12.2021 20:44 4,9 C 3,3 C 2,2 C 97 % 998,2 hPa 0,0 l/m 0 min 0 min 0 W/m 12,9 km/h (3 Bft) 97,87 %
04.12.2021 20:46 4,9 C 3,3 C 2,2 C 97 % 998,3 hPa 0,0 l/m 0 min 0 min 0 W/m 12,9 km/h (3 Bft) 95,65 %
04.12.2021 20:48 4,9 C 3,3 C 2,2 C 97 % 998,3 hPa 0,0 l/m 0 min 0 min 0 W/m 6,4 km/h (2 Bft) 95,74 %
04.12.2021 20:50 4,9 C 3,3 C 2,2 C 97 % 998,3 hPa 0,0 l/m 0 min 0 min 0 W/m 16,1 km/h (3 Bft) 95,74 %
04.12.2021 20:52 4,9 C 3,3 C 2,2 C 97 % 998,3 hPa 0,0 l/m 0 min 0 min 0 W/m 9,7 km/h (2 Bft) 95,74 %
04.12.2021 20:54 4,8 C 3,3 C 2,2 C 96 % 998,3 hPa 0,0 l/m 0 min 0 min 0 W/m 19,3 km/h (3 Bft) 93,62 %
04.12.2021 20:56 4,8 C 3,3 C 2,2 C 97 % 998,3 hPa 0,0 l/m 0 min 0 min 0 W/m 12,9 km/h (3 Bft) 95,74 %
04.12.2021 20:58 4,8 C 3,3 C 2,2 C 97 % 998,4 hPa 0,0 l/m 0 min 0 min 0 W/m 16,1 km/h (3 Bft) 95,65 %
04.12.2021 21:00 4,8 C 3,3 C 2,2 C 97 % 998,4 hPa 0,0 l/m 0 min 0 min 0 W/m 12,9 km/h (3 Bft) 93,62 %
04.12.2021 21:02 4,8 C 3,3 C 2,2 C 97 % 998,4 hPa 0,0 l/m 0 min 0 min 0 W/m 16,1 km/h (3 Bft) 93,62 %
04.12.2021 21:04 4,8 C 3,3 C 2,2 C 96 % 998,4 hPa 0,0 l/m 0 min 0 min 0 W/m 12,9 km/h (3 Bft) 93,62 %
04.12.2021 21:06 4,7 C 3,3 C 2,2 C 96 % 998,3 hPa 0,0 l/m 0 min 0 min 0 W/m 16,1 km/h (3 Bft) 91,49 %
04.12.2021 21:08 4,7 C 3,3 C 2,2 C 96 % 998,3 hPa 0,0 l/m 0 min 0 min 0 W/m 16,1 km/h (3 Bft) 95,74 %
04.12.2021 21:10 4,7 C 3,3 C 2,2 C 96 % 998,3 hPa 0,0 l/m 0 min 0 min 0 W/m 12,9 km/h (3 Bft) 95,65 %
04.12.2021 21:12 4,7 C 3,3 C 2,2 C 96 % 998,3 hPa 0,0 l/m 0 min 0 min 0 W/m 19,3 km/h (3 Bft) 95,74 %
04.12.2021 21:14 4,7 C 3,3 C 2,2 C 96 % 998,4 hPa 0,0 l/m 0 min 0 min 0 W/m 16,1 km/h (3 Bft) 95,74 %
04.12.2021 21:16 4,7 C 3,3 C 2,2 C 96 % 998,4 hPa 0,0 l/m 0 min 0 min 0 W/m 16,1 km/h (3 Bft) 93,62 %
04.12.2021 21:18 4,7 C 3,3 C 2,2 C 96 % 998,4 hPa 0,0 l/m 0 min 0 min 0 W/m 9,7 km/h (2 Bft) 93,62 %
04.12.2021 21:20 4,7 C 3,3 C 2,2 C 96 % 998,5 hPa 0,0 l/m 0 min 0 min 0 W/m 16,1 km/h (3 Bft) 94,44 %
04.12.2021 21:22 4,7 C 3,3 C 2,2 C 96 % 998,4 hPa 0,0 l/m 0 min 0 min 0 W/m 16,1 km/h (3 Bft) 95,74 %
04.12.2021 21:24 4,7 C 3,3 C 2,2 C 96 % 998,4 hPa 0,0 l/m 0 min 0 min 0 W/m 12,9 km/h (3 Bft) 97,87 %
04.12.2021 21:26 4,8 C 3,3 C 2,2 C 96 % 998,4 hPa 0,0 l/m 0 min 0 min 0 W/m 12,9 km/h (3 Bft) 95,74 %
04.12.2021 21:28 4,8 C 3,3 C 2,2 C 96 % 998,4 hPa 0,0 l/m 0 min 0 min 0 W/m 12,9 km/h (3 Bft) 95,74 %
04.12.2021 21:30 4,8 C 3,3 C 2,2 C 96 % 998,5 hPa 0,0 l/m 0 min 0 min 0 W/m 16,1 km/h (3 Bft) 95,65 %
04.12.2021 21:32 4,8 C 3,3 C 2,2 C 96 % 998,5 hPa 0,0 l/m 0 min 0 min 0 W/m 6,4 km/h (2 Bft) 97,87 %
04.12.2021 21:34 4,8 C 3,3 C 2,2 C 96 % 998,4 hPa 0,0 l/m 0 min 0 min 0 W/m 16,1 km/h (3 Bft) 97,87 %
04.12.2021 21:36 4,8 C 3,3 C 2,2 C 96 % 998,5 hPa 0,0 l/m 0 min 0 min 0 W/m 12,9 km/h (3 Bft) 97,87 %
04.12.2021 21:38 4,8 C 3,3 C 2,2 C 96 % 998,5 hPa 0,0 l/m 0 min 0 min 0 W/m 9,7 km/h (2 Bft) 95,74 %
04.12.2021 21:40 4,8 C 3,3 C 2,2 C 96 % 998,5 hPa 0,0 l/m 0 min 0 min 0 W/m 9,7 km/h (2 Bft) 97,87 %
04.12.2021 21:42 4,8 C 3,3 C 2,2 C 96 % 998,5 hPa 0,0 l/m 0 min 0 min 0 W/m 16,1 km/h (3 Bft) 95,74 %
04.12.2021 21:44 4,9 C 3,9 C 2,2 C 96 % 998,5 hPa 0,0 l/m 0 min 0 min 0 W/m 16,1 km/h (3 Bft) 97,83 %
04.12.2021 21:46 4,9 C 3,9 C 2,2 C 96 % 998,5 hPa 0,0 l/m 0 min 0 min 0 W/m 16,1 km/h (3 Bft) 97,87 %
04.12.2021 21:48 4,9 C 3,9 C 2,2 C 96 % 998,5 hPa 0,0 l/m 0 min 0 min 0 W/m 12,9 km/h (3 Bft) 95,74 %
04.12.2021 21:50 4,9 C 3,9 C 2,2 C 96 % 998,4 hPa 0,0 l/m 0 min 0 min 0 W/m 16,1 km/h (3 Bft) 95,74 %
04.12.2021 21:52 4,9 C 3,9 C 2,2 C 96 % 998,5 hPa 0,0 l/m 0 min 0 min 0 W/m 12,9 km/h (3 Bft) 97,87 %
04.12.2021 21:54 4,9 C 3,3 C 2,2 C 96 % 998,5 hPa 0,0 l/m 0 min 0 min 0 W/m 9,7 km/h (2 Bft) 97,83 %
04.12.2021 21:56 4,9 C 3,3 C 2,2 C 96 % 998,5 hPa 0,0 l/m 0 min 0 min 0 W/m 19,3 km/h (3 Bft) 100,00 %
04.12.2021 21:58 4,9 C 3,3 C 2,2 C 96 % 998,5 hPa 0,0 l/m 0 min 0 min 0 W/m 16,1 km/h (3 Bft) 100,00 %
04.12.2021 22:00 4,9 C 3,3 C 2,2 C 96 % 998,6 hPa 0,0 l/m 0 min 0 min 0 W/m 12,9 km/h (3 Bft) 100,00 %
04.12.2021 22:02 4,9 C 3,3 C 2,2 C 96 % 998,6 hPa 0,0 l/m 0 min 0 min 0 W/m 16,1 km/h (3 Bft) 97,87 %
04.12.2021 22:04 4,8 C 3,3 C 2,2 C 96 % 998,6 hPa 0,0 l/m 0 min 0 min 0 W/m 12,9 km/h (3 Bft) 100,00 %
04.12.2021 22:06 4,8 C 3,3 C 2,2 C 96 % 998,7 hPa 0,0 l/m 0 min 0 min 0 W/m 16,1 km/h (3 Bft) 100,00 %
04.12.2021 22:08 4,8 C 3,3 C 2,2 C 96 % 998,6 hPa 0,0 l/m 0 min 0 min 0 W/m 22,5 km/h (4 Bft) 100,00 %
04.12.2021 22:10 4,8 C 3,3 C 2,2 C 96 % 998,7 hPa 0,0 l/m 0 min 0 min 0 W/m 9,7 km/h (2 Bft) 97,87 %
04.12.2021 22:12 4,7 C 3,3 C 1,7 C 96 % 998,7 hPa 0,0 l/m 0 min 0 min 0 W/m 12,9 km/h (3 Bft) 97,87 %
04.12.2021 22:14 4,7 C 3,3 C 2,2 C 96 % 998,7 hPa 0,0 l/m 0 min 0 min 0 W/m 16,1 km/h (3 Bft) 100,00 %
04.12.2021 22:16 4,7 C 3,3 C 2,2 C 96 % 998,7 hPa 0,0 l/m 0 min 0 min 0 W/m 16,1 km/h (3 Bft) 100,00 %
04.12.2021 22:18 4,7 C 3,3 C 2,2 C 96 % 998,8 hPa 0,0 l/m 0 min 0 min 0 W/m 19,3 km/h (3 Bft) 100,00 %
04.12.2021 22:20 4,7 C 3,3 C 2,2 C 96 % 998,7 hPa 0,0 l/m 0 min 0 min 0 W/m 12,9 km/h (3 Bft) 100,00 %
04.12.2021 22:22 4,7 C 3,3 C 2,2 C 96 % 998,8 hPa 0,0 l/m 0 min 0 min 0 W/m 19,3 km/h (3 Bft) 100,00 %
04.12.2021 22:24 4,7 C 3,3 C 2,2 C 96 % 998,8 hPa 0,0 l/m 0 min 0 min 0 W/m 16,1 km/h (3 Bft) 95,74 %
04.12.2021 22:26 4,7 C 3,3 C 2,2 C 96 % 998,9 hPa 0,0 l/m 0 min 0 min 0 W/m 9,7 km/h (2 Bft) 97,87 %
04.12.2021 22:28 4,7 C 3,3 C 2,2 C 96 % 998,8 hPa 0,0 l/m 0 min 0 min 0 W/m 16,1 km/h (3 Bft) 97,87 %
04.12.2021 22:30 4,7 C 3,3 C 2,2 C 96 % 998,8 hPa 0,0 l/m 0 min 0 min 0 W/m 16,1 km/h (3 Bft) 97,83 %
04.12.2021 22:32 4,7 C 3,3 C 2,2 C 96 % 998,8 hPa 0,0 l/m 0 min 0 min 0 W/m 9,7 km/h (2 Bft) 97,87 %
04.12.2021 22:34 4,7 C 3,3 C 2,2 C 96 % 998,7 hPa 0,0 l/m 0 min 0 min 0 W/m 12,9 km/h (3 Bft) 97,87 %
04.12.2021 22:36 4,7 C 3,3 C 2,2 C 96 % 998,7 hPa 0,0 l/m 0 min 0 min 0 W/m 9,7 km/h (2 Bft) 95,74 %
04.12.2021 22:38 4,8 C 3,3 C 2,2 C 95 % 998,8 hPa 0,0 l/m 0 min 0 min 0 W/m 25,7 km/h (4 Bft) 97,87 %
04.12.2021 22:40 4,8 C 3,3 C 2,2 C 95 % 998,8 hPa 0,0 l/m 0 min 0 min 0 W/m 32,2 km/h (5 Bft) 97,83 %
04.12.2021 22:42 4,8 C 3,3 C 2,2 C 95 % 998,8 hPa 0,0 l/m 0 min 0 min 0 W/m 19,3 km/h (3 Bft) 95,74 %
04.12.2021 22:44 4,8 C 3,3 C 2,2 C 95 % 998,8 hPa 0,0 l/m 0 min 0 min 0 W/m 12,9 km/h (3 Bft) 97,87 %
04.12.2021 22:46 4,8 C 3,3 C 2,2 C 95 % 998,8 hPa 0,0 l/m 0 min 0 min 0 W/m 12,9 km/h (3 Bft) 95,74 %
04.12.2021 22:48 4,8 C 3,9 C 2,2 C 95 % 998,9 hPa 0,0 l/m 0 min 0 min 0 W/m 19,3 km/h (3 Bft) 95,74 %
04.12.2021 22:50 4,9 C 3,9 C 2,2 C 95 % 998,8 hPa 0,0 l/m 0 min 0 min 0 W/m 9,7 km/h (2 Bft) 97,87 %
04.12.2021 22:52 4,9 C 3,9 C 2,2 C 95 % 998,9 hPa 0,0 l/m 0 min 0 min 0 W/m 16,1 km/h (3 Bft) 95,65 %
04.12.2021 22:54 4,9 C 3,9 C 2,2 C 95 % 998,7 hPa 0,0 l/m 0 min 0 min 0 W/m 12,9 km/h (3 Bft) 97,87 %
04.12.2021 22:56 4,9 C 3,9 C 2,2 C 95 % 998,8 hPa 0,0 l/m 0 min 0 min 0 W/m 16,1 km/h (3 Bft) 97,87 %
04.12.2021 22:58 4,9 C 3,9 C 2,2 C 95 % 998,8 hPa 0,0 l/m 0 min 0 min 0 W/m 16,1 km/h (3 Bft) 93,62 %
04.12.2021 23:00 4,9 C 3,9 C 2,2 C 95 % 998,9 hPa 0,0 l/m 0 min 0 min 0 W/m 12,9 km/h (3 Bft) 100,00 %
04.12.2021 23:02 4,9 C 3,9 C 2,2 C 95 % 998,8 hPa 0,0 l/m 0 min 0 min 0 W/m 16,1 km/h (3 Bft) 95,74 %
04.12.2021 23:04 4,9 C 3,9 C 2,2 C 95 % 998,9 hPa 0,0 l/m 0 min 0 min 0 W/m 16,1 km/h (3 Bft) 97,83 %
04.12.2021 23:06 4,9 C 3,3 C 2,2 C 95 % 998,8 hPa 0,0 l/m 0 min 0 min 0 W/m 9,7 km/h (2 Bft) 97,87 %
04.12.2021 23:08 4,9 C 3,3 C 2,2 C 94 % 998,8 hPa 0,0 l/m 0 min 0 min 0 W/m 12,9 km/h (3 Bft) 95,74 %
04.12.2021 23:10 4,9 C 3,3 C 2,2 C 94 % 998,8 hPa 0,0 l/m 0 min 0 min 0 W/m 12,9 km/h (3 Bft) 93,62 %
04.12.2021 23:12 4,9 C 3,3 C 2,2 C 94 % 998,8 hPa 0,0 l/m 0 min 0 min 0 W/m 16,1 km/h (3 Bft) 95,74 %
04.12.2021 23:14 4,8 C 3,3 C 2,2 C 94 % 998,9 hPa 0,0 l/m 0 min 0 min 0 W/m 16,1 km/h (3 Bft) 97,87 %
04.12.2021 23:16 4,8 C 3,3 C 1,7 C 94 % 998,9 hPa 0,0 l/m 0 min 0 min 0 W/m 19,3 km/h (3 Bft) 97,83 %
04.12.2021 23:18 4,8 C 3,3 C 1,7 C 94 % 998,9 hPa 0,0 l/m 0 min 0 min 0 W/m 19,3 km/h (3 Bft) 97,87 %
04.12.2021 23:20 4,8 C 3,3 C 1,7 C 94 % 998,9 hPa 0,0 l/m 0 min 0 min 0 W/m 16,1 km/h (3 Bft) 97,87 %
04.12.2021 23:22 4,8 C 3,3 C 1,7 C 94 % 999,0 hPa 0,0 l/m 0 min 0 min 0 W/m 16,1 km/h (3 Bft) 95,74 %
04.12.2021 23:24 4,8 C 3,3 C 1,7 C 94 % 998,9 hPa 0,0 l/m 0 min 0 min 0 W/m 16,1 km/h (3 Bft) 95,74 %
04.12.2021 23:26 4,8 C 3,3 C 1,7 C 94 % 999,0 hPa 0,0 l/m 0 min 0 min 0 W/m 9,7 km/h (2 Bft) 97,87 %
04.12.2021 23:28 4,8 C 3,3 C 1,7 C 94 % 998,9 hPa 0,0 l/m 0 min 0 min 0 W/m 29,0 km/h (5 Bft) 97,83 %
04.12.2021 23:30 4,8 C 3,3 C 1,7 C 94 % 998,9 hPa 0,0 l/m 0 min 0 min 0 W/m 22,5 km/h (4 Bft) 54,55 %
04.12.2021 23:32 4,7 C 3,3 C 1,7 C 93 % 999,0 hPa 0,0 l/m 0 min 0 min 0 W/m 19,3 km/h (3 Bft) 97,87 %
04.12.2021 23:34 4,7 C 3,3 C 1,7 C 93 % 999,0 hPa 0,0 l/m 0 min 0 min 0 W/m 12,9 km/h (3 Bft) 97,87 %
04.12.2021 23:36 4,7 C 3,3 C 1,7 C 94 % 999,0 hPa 0,0 l/m 0 min 0 min 0 W/m 22,5 km/h (4 Bft) 97,87 %
04.12.2021 23:38 4,7 C 3,3 C 1,7 C 93 % 999,1 hPa 0,0 l/m 0 min 0 min 0 W/m 12,9 km/h (3 Bft) 97,87 %
04.12.2021 23:40 4,7 C 3,3 C 1,7 C 93 % 999,2 hPa 0,0 l/m 0 min 0 min 0 W/m 19,3 km/h (3 Bft) 100,00 %
04.12.2021 23:42 4,7 C 3,3 C 1,7 C 93 % 999,2 hPa 0,0 l/m 0 min 0 min 0 W/m 12,9 km/h (3 Bft) 97,87 %
04.12.2021 23:44 4,6 C 3,3 C 1,7 C 93 % 999,2 hPa 0,0 l/m 0 min 0 min 0 W/m 19,3 km/h (3 Bft) 100,00 %
04.12.2021 23:46 4,6 C 3,3 C 1,7 C 93 % 999,2 hPa 0,0 l/m 0 min 0 min 0 W/m 16,1 km/h (3 Bft) 100,00 %
04.12.2021 23:48 4,6 C 3,3 C 1,7 C 93 % 999,2 hPa 0,0 l/m 0 min 0 min 0 W/m 19,3 km/h (3 Bft) 100,00 %
04.12.2021 23:50 4,6 C 3,3 C 1,7 C 93 % 999,2 hPa 0,0 l/m 0 min 0 min 0 W/m 16,1 km/h (3 Bft) 100,00 %
04.12.2021 23:52 4,6 C 3,3 C 1,7 C 93 % 999,2 hPa 0,0 l/m 0 min 0 min 0 W/m 16,1 km/h (3 Bft) 100,00 %
04.12.2021 23:54 4,6 C 2,8 C 1,7 C 93 % 999,3 hPa 0,0 l/m 0 min 0 min 0 W/m 12,9 km/h (3 Bft) 100,00 %
04.12.2021 23:56 4,5 C 2,8 C 1,7 C 93 % 999,3 hPa 0,0 l/m 0 min 0 min 0 W/m 16,1 km/h (3 Bft) 97,87 %
04.12.2021 23:58 4,5 C 2,8 C 1,7 C 93 % 999,3 hPa 0,0 l/m 0 min 0 min 0 W/m 16,1 km/h (3 Bft) 100,00 %
_ Min-Zeit 01:00 00:00 00:13 00:00 13:42 - - - - 15:02 01:48
Minimum _ 3,5 C 2,8 C 0,6 C 93 % 994,2 hPa - - - - 0,0 km/h (0 Bft) 40,00 %
_ Max-Zeit 13:22 13:14 11:08 17:40 00:00 00:08 10:44 00:02 11:08 22:40 00:24
Maximum _ 6,1 C 5,6 C 3,3 C 98 % 1002,5 hPa 0,2 l/m 2 min 2 min 152 W/m 32,2 km/h
S-SO (5 Bft)
100,00 %
Durchschnitt _ 4,5 C 3,8 C 2,2 C 96 % 997,7 hPa #6,2 l/m #18 min. #4:06 h 57 W/m 12,3 km/h (3 Bft) 97,11 %
© 2021 W. Hausmann